GFSSGP_sfc_thetae_051.txt.gz
Theta_e
322 318 314 306 292 290 288 293 300 315 315 321 325 323 321 323 319 312 337 336 338 342 346 348 347 348 349 349 349 349 349 348 348 348 346 345 343 342 341 339 338 337 334 335 335 334 333 333 332
312 314 309 300 288 283 288 302 310 313 321 321 321 324 322 321 329 331 333 337 339 342 345 346 346 347 348 348 348 348 348 347 347 346 345 343 341 340 337 337 337 336 334 335 334 334 333 332 332
315 311 297 291 286 286 289 306 314 317 321 319 317 319 321 321 329 333 338 339 338 339 343 346 345 346 347 347 347 347 346 346 344 343 342 341 339 336 335 337 337 336 334 334 334 333 332 332 332
306 301 298 289 288 293 296 308 315 314 316 318 316 313 321 326 328 336 340 340 336 339 343 342 343 345 346 347 346 346 345 343 342 342 341 339 336 336 336 337 336 335 334 333 333 332 331 332 332
302 297 289 287 290 297 313 313 316 312 314 314 316 310 314 325 336 336 337 339 338 339 340 341 340 344 345 346 345 344 343 342 341 340 339 338 335 335 335 337 336 334 333 333 332 332 331 331 330
297 295 286 286 292 309 313 314 314 312 313 312 313 311 313 327 331 334 336 334 336 336 338 340 342 342 343 344 343 341 340 340 339 338 338 337 337 336 336 335 335 334 333 333 332 332 330 329 328
295 291 289 291 294 306 311 318 312 313 310 309 316 312 317 321 330 334 333 332 334 337 336 339 340 341 340 339 339 338 338 338 337 336 335 335 334 334 335 335 335 334 334 334 332 330 329 327 327
298 293 290 293 299 301 313 314 316 312 309 318 319 313 314 321 332 334 332 331 332 335 336 337 337 339 338 337 336 335 335 334 334 333 332 332 332 333 333 333 334 334 333 332 331 330 329 328 327
299 290 289 293 303 306 313 309 316 315 315 315 316 316 326 328 328 328 328 329 330 332 334 336 336 336 336 335 335 334 335 333 332 331 331 328 327 328 330 330 332 332 331 330 330 329 328 327 326
295 289 292 306 308 307 310 310 312 311 310 312 321 324 327 323 323 323 324 323 326 330 331 332 335 334 334 334 331 330 332 328 328 327 327 325 324 325 329 330 331 331 331 329 329 329 327 325 318
296 292 302 308 310 309 308 310 314 310 306 311 317 321 323 322 319 323 320 323 323 328 329 332 333 332 329 330 328 327 326 326 326 326 326 326 329 326 328 326 328 325 328 323 325 322 320 318 317
294 301 305 310 311 310 308 309 309 311 309 315 324 326 320 319 321 322 321 321 324 325 325 326 328 328 325 329 326 324 326 329 328 330 332 330 329 328 328 326 326 327 323 317 316 314 313 313 313
298 301 304 312 311 310 312 307 308 310 314 317 328 328 323 321 323 326 327 324 323 322 323 323 325 324 323 328 330 330 330 330 330 331 331 330 329 326 325 322 319 317 314 312 311 310 311 311 311
304 304 304 307 308 308 308 308 304 313 314 316 322 323 321 319 323 325 323 319 320 322 322 323 324 326 330 327 325 325 328 329 329 328 328 327 326 323 319 317 315 312 312 311 310 308 306 304 305
303 299 302 304 306 305 305 302 302 309 315 318 319 320 318 314 320 321 318 318 320 322 323 323 325 326 323 322 323 322 324 325 326 324 322 321 322 318 316 313 312 311 311 309 306 303 303 302 303
299 299 294 302 307 308 306 298 305 309 312 311 314 316 319 312 315 316 318 319 320 321 322 324 329 322 320 319 319 319 319 321 321 318 317 317 317 315 312 311 310 310 308 305 304 302 301 300 299
296 291 293 297 307 306 304 299 305 308 310 308 307 306 308 309 312 317 319 320 321 322 324 325 323 321 320 319 318 318 317 316 316 314 313 313 313 313 311 309 307 307 305 304 303 301 300 298 298
292 292 294 293 300 304 301 298 302 307 309 306 305 304 305 307 310 315 320 322 323 324 327 324 324 321 319 319 319 318 316 313 311 310 310 311 312 313 311 308 305 305 303 302 301 300 300 299 298
297 296 293 296 300 299 300 298 301 304 306 304 303 303 304 306 310 312 315 323 324 326 326 324 322 321 321 319 317 315 312 310 309 309 311 311 312 310 307 306 305 303 302 301 301 299 298 297 297
298 296 296 299 300 297 294 295 300 303 306 307 305 304 305 307 313 316 317 324 325 325 325 323 322 321 321 323 319 315 312 309 310 310 311 311 309 308 307 304 303 302 301 300 299 298 297 296 297
299 297 296 296 299 297 297 293 295 301 304 308 309 308 309 311 313 316 318 320 324 323 323 323 323 322 322 325 319 315 311 310 308 308 309 309 309 308 306 305 303 301 301 299 298 297 296 294 295
295 302 301 298 295 288 297 286 295 299 301 304 308 308 309 311 316 317 318 321 323 322 324 325 324 322 323 324 317 312 307 307 307 308 308 308 308 307 305 304 302 301 301 299 298 300 297 295 292
298 302 300 300 296 293 293 290 294 299 299 301 303 307 310 313 316 317 320 322 323 324 324 322 323 323 323 317 314 310 308 308 309 310 310 308 307 306 305 303 301 300 300 299 297 295 295 295 293
303 300 300 298 296 286 294 292 290 294 300 303 306 308 309 311 316 319 322 323 323 322 321 321 322 321 314 313 312 311 309 310 310 309 309 307 307 304 303 302 300 299 298 296 295 294 294 293 293
300 295 286 284 284 284 297 293 293 301 303 305 305 307 309 314 316 319 321 320 321 319 321 322 319 312 312 313 312 311 308 307 306 304 302 300 301 301 301 299 298 296 295 295 294 293 293 292 292
298 296 287 282 283 285 296 291 295 303 305 307 309 307 312 312 313 317 319 320 321 316 313 316 312 312 313 313 311 309 307 304 302 302 303 302 302 302 297 296 295 295 295 295 294 293 292 292 292
298 293 300 291 289 282 288 293 300 303 303 306 306 309 310 310 310 311 311 313 312 312 312 311 311 311 313 312 309 306 303 301 302 302 302 302 300 299 296 294 294 294 294 294 293 292 292 291 290
299 301 290 290 281 279 286 288 291 298 301 303 305 307 309 310 309 308 309 311 312 312 313 312 311 312 312 311 308 306 302 302 302 303 302 300 298 297 296 294 294 294 294 293 293 291 291 290 289
296 294 294 293 290 282 279 285 296 298 300 300 303 309 310 309 308 307 307 311 312 312 312 312 311 312 310 308 305 302 302 304 303 302 300 297 297 296 295 294 294 294 293 293 292 291 291 290 289
299 296 296 284 286 287 283 285 298 299 301 301 301 309 311 311 310 308 308 309 311 313 315 314 312 309 307 303 303 305 304 303 303 301 298 297 296 296 295 294 294 294 293 293 292 289 290 289 289

GFSSGP_sfc_thetae_054.txt.gz
Theta_e
320 317 311 304 292 289 286 290 296 301 312 318 325 323 320 322 317 308 332 335 341 344 347 347 347 348 349 348 348 348 348 348 345 344 344 343 341 340 339 338 338 338 335 334 333 332 332 332 332
313 312 306 296 286 282 285 296 308 312 318 319 320 323 322 321 330 330 329 338 342 343 346 346 346 347 348 348 347 347 347 346 345 343 341 341 339 338 335 335 337 338 334 333 333 332 331 331 333
313 309 297 291 284 283 285 302 311 315 319 317 314 320 321 320 328 333 334 337 342 343 345 346 344 345 347 347 346 346 346 345 344 341 341 340 337 335 335 337 337 337 334 333 332 331 331 331 333
304 299 295 287 285 290 294 307 315 313 314 316 315 312 321 329 331 336 337 339 340 343 345 343 343 344 346 346 346 345 344 342 341 340 339 338 336 336 335 337 337 335 333 332 332 331 330 332 332
300 294 288 284 288 296 310 312 314 311 311 313 312 308 315 331 336 335 337 338 338 339 341 341 340 343 344 345 345 343 342 341 339 339 338 338 336 335 336 337 336 335 333 332 331 330 331 330 331
296 292 285 284 290 307 310 313 314 312 312 312 311 310 312 331 331 332 334 336 335 334 336 338 340 341 341 343 342 341 340 339 338 338 337 337 337 335 335 335 335 335 334 333 332 331 330 330 331
293 290 286 290 291 301 308 316 312 311 312 311 312 310 315 326 330 331 332 333 334 335 335 336 336 338 338 339 338 337 338 337 336 336 335 335 334 334 335 335 335 334 334 333 331 330 328 328 329
295 292 286 289 297 300 311 313 314 311 309 317 316 311 309 324 329 329 329 332 332 331 332 335 337 337 336 335 335 335 335 334 333 333 332 332 332 333 333 333 334 334 332 331 330 329 327 327 327
297 289 286 289 301 304 311 307 313 315 312 313 317 319 323 328 328 325 325 328 328 331 330 334 333 334 335 333 334 334 334 332 331 331 331 328 326 327 329 329 332 332 330 329 329 328 326 325 326
293 287 289 296 306 305 308 307 311 309 308 314 318 325 327 327 325 323 323 324 325 327 330 333 332 333 333 332 330 329 329 327 326 325 324 323 324 324 328 328 330 330 329 329 328 327 325 320 315
294 291 299 306 307 308 307 307 311 308 304 313 315 319 322 323 322 321 322 324 324 328 328 331 332 332 330 328 326 326 324 324 323 324 323 324 325 325 324 324 325 323 325 321 319 315 314 312 311
293 297 303 307 308 307 305 308 308 308 307 320 322 322 319 320 319 319 320 320 321 325 327 331 332 329 326 325 324 324 324 325 324 324 326 325 326 324 324 324 322 319 315 312 311 310 310 308 308
295 297 306 309 309 308 310 305 307 307 314 321 319 321 319 319 318 320 321 321 322 324 325 329 330 324 325 325 324 325 327 328 328 328 329 328 325 322 318 316 315 313 311 310 307 306 304 304 303
301 307 307 307 307 309 307 306 304 309 314 320 321 319 319 319 319 320 320 319 323 323 322 325 326 324 327 325 326 326 328 327 326 325 325 326 322 316 315 313 311 310 309 307 304 302 301 300 301
301 297 302 302 302 303 305 300 302 310 314 318 320 318 320 319 321 320 322 320 322 322 323 322 325 326 324 324 324 323 324 324 322 320 320 319 319 316 313 311 310 309 307 304 302 301 300 300 300
296 295 291 302 305 306 302 296 303 308 313 315 318 317 320 318 318 322 324 323 322 322 321 326 326 323 320 319 320 321 321 320 319 317 316 317 315 312 310 309 308 306 303 302 301 300 299 298 297
296 290 292 298 306 304 301 296 303 308 309 312 315 314 314 317 319 321 321 320 321 321 321 322 321 319 319 317 317 316 317 315 314 312 311 312 312 311 308 305 304 304 302 301 301 299 298 296 297
292 292 294 293 301 302 300 298 300 305 309 308 312 313 308 312 315 317 317 319 320 321 324 321 320 318 317 316 316 314 313 312 311 309 309 310 310 311 308 304 303 302 301 300 299 297 298 297 296
298 295 292 295 299 299 299 298 299 303 305 302 303 309 308 310 313 316 317 318 319 321 322 321 319 317 317 316 316 314 310 309 308 308 310 310 310 310 305 303 302 301 300 299 299 297 297 296 296
298 295 293 297 298 300 295 296 299 303 306 305 304 304 305 306 309 315 317 317 319 322 321 320 319 318 318 319 316 314 311 308 307 308 309 310 308 306 304 302 301 300 299 298 297 297 296 295 295
297 294 294 294 296 295 293 291 295 300 305 306 306 305 306 307 308 313 317 318 320 321 321 320 320 319 319 320 318 312 309 307 306 306 306 306 307 307 304 302 301 300 299 297 297 296 294 293 293
293 300 299 296 291 286 293 284 292 296 301 304 305 303 303 308 311 316 318 319 320 321 322 321 321 320 320 322 318 310 307 306 306 306 307 306 307 306 304 303 301 300 299 297 297 297 294 293 290
296 300 299 298 293 290 292 288 291 296 296 299 304 304 305 310 311 315 319 321 322 322 322 322 322 322 321 322 317 311 306 307 306 307 306 306 305 304 303 301 300 299 298 296 294 293 293 292 291
301 298 298 296 293 285 293 289 288 293 297 301 303 306 306 310 312 315 320 322 321 322 322 322 322 321 320 320 314 311 308 307 306 306 305 305 305 302 302 300 298 297 295 294 293 292 291 290 290
298 292 283 282 282 282 294 290 292 297 301 301 302 304 306 310 312 316 319 320 321 321 322 322 320 319 315 313 312 310 308 307 307 306 304 302 300 301 300 298 298 296 295 295 293 291 291 290 289
297 293 284 280 280 283 294 288 292 301 303 304 304 303 309 310 315 317 318 319 319 320 319 321 320 314 310 310 309 307 306 304 303 304 303 302 301 299 298 296 297 296 296 294 292 291 290 291 290
296 291 296 289 286 281 287 290 298 301 303 304 303 305 308 310 315 316 317 318 318 317 316 316 314 311 310 309 306 304 303 302 304 303 302 300 299 298 297 296 296 294 292 292 292 290 290 289 288
297 299 290 288 280 279 284 286 290 296 299 302 301 303 307 309 310 313 315 315 314 314 310 309 312 312 311 308 306 304 303 302 304 304 302 299 298 298 297 295 294 293 292 292 292 291 290 289 289
294 292 293 292 287 281 279 284 293 297 300 302 303 306 308 308 308 310 312 314 313 312 310 309 309 310 309 306 303 303 304 304 303 302 299 298 298 297 296 295 293 293 293 294 292 290 291 290 289
297 294 294 283 284 285 281 284 296 298 300 300 302 307 309 309 308 309 310 311 310 311 311 310 311 311 306 303 302 304 304 305 303 300 299 299 296 296 295 294 293 293 293 293 291 289 289 289 288

GFSSGP_sfc_thetae_060.txt.gz
Theta_e
316 308 306 300 291 288 284 287 292 297 302 322 324 321 316 321 314 304 328 333 342 344 345 345 345 347 347 348 347 347 346 344 341 339 340 340 340 340 340 339 338 338 336 336 340 341 342 341 338
310 309 301 292 285 281 284 288 295 307 315 318 318 319 320 319 328 326 325 339 344 344 344 344 345 346 347 347 347 346 345 343 342 340 339 339 339 340 339 338 337 338 338 335 338 339 341 340 341
308 303 296 288 282 281 283 290 300 308 316 315 314 319 318 319 327 327 334 340 343 343 344 343 344 345 346 346 346 345 343 342 340 339 338 338 339 339 336 338 336 337 337 333 334 335 335 336 335
300 296 292 286 282 288 289 296 308 309 311 314 313 310 322 330 331 333 338 342 341 342 343 341 341 343 345 346 346 344 342 340 339 339 339 338 339 338 338 337 336 337 336 332 333 333 333 333 332
296 292 285 282 284 289 305 309 311 309 309 310 311 310 317 329 332 336 336 340 339 340 340 340 339 342 345 346 344 342 341 339 339 338 338 338 339 338 338 337 336 336 336 333 332 332 333 333 331
294 290 283 282 285 292 308 310 311 310 310 311 310 310 317 331 331 334 335 336 337 336 337 338 340 340 340 340 341 340 339 339 338 338 338 338 338 337 337 336 335 335 334 334 333 332 331 330 331
292 288 284 287 289 292 305 312 308 308 307 308 313 308 319 326 331 332 332 333 334 334 334 335 336 337 335 337 338 337 337 337 337 337 337 336 336 335 335 335 334 334 333 333 333 332 331 330 328
293 290 284 287 288 292 308 311 311 306 305 314 317 308 314 325 330 331 331 331 331 332 332 332 333 333 333 334 335 335 335 335 335 335 334 332 333 333 333 333 334 333 333 332 330 330 329 328 327
292 287 284 288 289 295 308 304 310 311 311 316 320 317 323 327 328 326 325 327 328 328 328 329 330 331 331 331 335 334 335 334 333 332 331 327 326 326 325 331 332 332 332 330 327 324 321 319 320
291 285 287 292 295 303 307 304 306 306 309 313 318 323 325 325 324 322 321 320 321 320 321 323 327 329 330 332 330 328 330 326 326 325 323 322 322 321 326 328 330 331 327 325 322 318 316 310 305
289 289 292 295 305 307 306 304 307 304 301 312 315 317 322 322 322 321 320 320 319 320 322 325 327 329 330 328 327 325 323 323 323 322 321 321 324 322 322 321 320 317 316 309 308 306 304 303 303
289 293 294 302 307 306 304 305 304 304 305 317 320 322 322 320 320 320 319 319 320 321 322 324 327 329 328 326 325 323 321 321 321 320 322 322 321 320 320 318 312 310 308 305 304 303 302 302 302
291 298 303 306 306 305 306 301 303 306 315 320 321 321 320 319 321 323 322 322 322 322 323 324 328 327 325 324 322 321 321 321 321 321 323 324 321 320 315 311 309 306 304 303 302 303 302 301 299
303 301 303 303 304 306 302 302 301 309 318 319 319 318 318 319 319 319 320 320 321 323 322 325 326 325 323 320 319 320 322 324 324 325 325 324 320 315 312 309 306 303 302 302 303 302 300 297 298
301 298 300 300 302 301 302 296 298 311 317 315 316 318 318 318 316 317 319 320 321 323 324 325 325 322 322 320 320 322 324 324 323 323 322 319 316 314 310 308 303 302 301 301 302 299 298 297 298
296 293 291 297 301 301 299 291 301 313 315 313 314 316 317 317 315 315 317 320 320 321 321 326 327 323 322 321 321 321 321 321 320 319 318 316 314 312 308 306 303 302 301 301 299 298 297 296 296
290 286 289 293 303 299 298 293 303 315 314 312 313 314 314 314 315 316 318 315 319 320 320 321 322 320 320 318 318 319 318 317 316 316 316 312 310 310 308 305 302 301 300 299 299 297 297 295 295
287 287 292 290 297 299 295 296 300 311 313 312 312 313 314 313 315 317 319 318 319 317 320 321 319 317 315 315 314 313 313 313 313 313 311 310 308 307 306 303 301 300 299 298 297 296 296 295 295
295 294 292 293 298 294 294 295 297 303 309 310 311 311 313 314 317 317 319 319 317 317 318 318 316 315 316 315 312 310 309 309 309 309 309 309 308 305 303 301 300 299 298 297 296 296 295 294 294
295 294 292 295 296 295 293 293 296 301 306 310 311 311 313 315 315 316 317 316 315 317 319 317 317 315 317 317 312 312 309 308 307 307 308 308 306 303 302 300 299 299 297 297 296 296 294 293 293
293 292 291 292 294 294 292 290 294 298 303 306 311 314 313 314 314 315 316 315 315 316 318 318 318 316 317 316 313 308 307 307 305 305 305 306 307 304 302 300 299 298 297 296 295 294 293 291 292
289 296 296 294 290 285 290 283 289 293 299 303 306 310 312 311 313 314 314 312 313 315 317 318 318 316 315 316 312 309 308 305 305 305 305 305 305 303 301 300 299 297 297 295 295 295 293 291 289
293 297 295 295 291 287 287 284 288 293 296 300 303 305 310 310 310 310 313 313 313 315 316 317 317 316 316 316 314 311 308 308 307 305 305 304 302 302 301 299 298 297 296 295 295 294 293 292 290
298 295 292 291 289 283 287 286 286 289 294 299 302 302 305 307 307 309 310 311 311 314 315 316 316 316 317 317 315 313 312 308 307 304 304 302 300 299 298 298 297 295 295 296 294 292 292 290 290
294 289 282 281 280 281 289 287 289 292 296 298 301 303 303 304 303 305 308 310 313 315 316 317 317 316 317 317 316 314 313 309 306 304 304 300 297 296 296 296 296 297 297 296 295 293 292 291 290
292 290 283 279 278 281 289 285 290 297 299 300 299 300 303 301 303 305 309 312 314 316 317 318 318 319 318 318 317 316 313 308 305 305 305 300 298 297 297 299 298 298 297 296 294 294 292 291 289
292 288 291 285 284 280 284 289 293 296 297 300 298 300 300 300 303 307 310 314 315 316 317 319 319 319 318 319 317 313 310 307 304 302 301 299 298 298 299 296 297 297 296 295 294 291 290 289 288
294 296 287 285 280 279 281 283 285 291 294 298 299 299 301 302 305 308 312 315 317 318 319 320 319 319 318 316 313 312 308 304 303 302 299 298 299 299 297 297 297 296 295 294 293 290 289 288 288
291 290 289 289 284 280 278 282 291 292 295 295 296 300 300 305 306 309 312 315 316 317 318 318 318 317 311 311 308 303 301 300 301 300 299 300 299 298 298 297 297 295 295 291 290 289 289 288 288
293 292 290 283 283 283 280 282 293 293 294 297 298 301 302 306 308 310 311 313 314 315 315 315 314 313 309 302 300 300 300 300 300 299 300 300 299 299 298 298 296 295 292 290 289 288 289 288 287

GFSSGP_sfc_thetae_063.txt.gz
Theta_e
323 313 313 308 299 297 292 293 298 301 308 321 325 321 318 321 316 312 332 337 344 343 343 345 345 347 347 347 347 348 347 345 342 341 341 341 342 341 340 340 340 341 341 343 343 341 339 342 341
315 313 309 302 295 291 292 295 296 309 315 320 320 321 321 319 327 327 328 339 343 343 343 344 344 346 347 347 346 346 345 343 341 341 341 342 341 340 340 339 339 342 344 344 343 341 340 341 339
311 306 305 297 292 290 291 295 302 311 319 319 318 321 321 319 327 328 336 342 343 343 343 344 344 345 345 345 344 343 343 341 340 340 341 341 341 339 339 339 338 339 341 341 342 342 341 338 337
306 304 300 296 292 294 294 297 311 312 315 317 318 315 324 332 332 334 338 343 342 343 343 342 341 343 345 345 344 342 341 339 339 339 340 340 340 339 338 337 336 338 339 337 339 338 335 335 334
303 301 295 292 292 294 299 310 313 312 313 314 315 313 319 330 336 337 340 342 341 341 342 344 339 342 345 345 343 341 340 339 338 339 340 340 340 339 338 337 336 336 337 336 335 334 334 333 333
302 299 294 291 292 296 304 313 313 312 313 314 315 315 318 331 334 337 340 340 343 341 340 341 340 341 340 341 341 339 338 338 338 338 339 339 339 338 337 336 336 335 334 334 334 333 333 332 331
300 298 293 292 293 295 304 315 311 311 311 311 317 313 321 327 332 334 335 337 337 336 335 336 337 337 337 338 337 336 337 337 337 338 338 337 336 336 335 335 334 335 334 333 332 332 330 330 329
300 299 292 293 293 295 309 313 314 311 310 320 321 313 316 325 331 332 333 333 333 333 334 333 332 329 331 335 335 335 335 335 335 335 334 333 333 334 334 333 334 334 334 334 331 330 329 326 325
300 297 292 293 293 298 312 309 313 316 317 318 321 319 325 329 330 329 328 327 328 329 331 331 327 330 329 331 334 334 335 334 333 333 332 329 330 329 329 331 333 332 330 328 324 322 321 321 320
299 295 295 298 298 304 310 309 310 311 314 315 317 324 327 327 327 325 323 320 321 321 324 327 327 326 327 332 332 334 333 332 332 330 330 328 329 330 328 330 330 328 326 324 320 317 315 314 311
296 296 298 298 299 310 309 309 312 309 308 315 316 320 323 323 324 322 320 321 321 320 320 320 322 328 327 328 330 329 329 329 329 329 327 328 328 330 329 329 325 321 318 313 311 311 312 311 311
296 298 298 301 309 310 309 310 308 310 310 318 322 323 322 320 321 320 319 318 318 319 321 320 321 321 331 330 329 327 326 326 326 326 328 329 328 329 328 326 320 316 313 313 311 311 311 310 310
296 300 307 307 309 309 309 306 307 313 320 322 322 322 320 320 321 321 320 319 319 319 320 319 323 329 331 330 329 326 326 326 328 328 329 331 329 329 325 319 315 312 312 311 310 309 308 309 308
306 305 306 308 308 308 305 306 307 313 321 319 320 318 319 320 321 320 319 319 319 320 322 323 327 331 330 329 328 326 326 327 327 329 329 331 329 325 318 315 312 311 311 311 310 308 307 307 307
305 303 304 306 308 306 307 303 304 314 319 315 318 319 320 321 323 320 321 320 321 322 323 323 329 332 330 328 327 326 326 327 327 328 330 330 327 322 318 315 312 310 311 310 306 308 308 307 306
302 299 296 303 306 305 305 299 306 317 316 314 315 318 319 319 321 322 323 323 323 324 325 327 328 330 329 327 326 326 327 330 331 332 329 327 324 321 317 313 311 311 311 309 308 308 307 306 306
296 294 294 297 306 304 303 299 308 317 316 314 315 316 318 318 318 320 323 324 325 326 326 327 330 330 330 328 327 328 330 330 329 328 327 323 321 319 315 312 311 311 310 310 308 307 307 306 306
293 292 295 296 300 304 301 301 309 314 314 314 315 316 316 317 317 320 322 323 325 327 327 329 330 329 328 327 326 327 328 327 327 327 325 321 319 317 315 312 311 311 309 308 308 307 307 306 306
296 296 295 298 301 299 298 298 301 313 314 313 314 314 316 317 320 321 322 323 323 326 326 327 327 327 325 323 321 321 323 323 322 323 321 319 317 316 312 311 310 310 309 308 308 307 306 305 306
298 296 296 298 300 299 298 298 300 309 312 315 315 315 317 318 318 319 321 323 322 323 325 325 326 324 325 325 324 324 323 321 321 320 319 318 316 313 311 311 309 309 307 307 307 307 305 305 305
297 295 295 295 298 298 296 295 298 301 309 313 316 317 318 318 318 319 319 321 322 321 323 324 325 325 325 326 323 319 318 317 316 316 315 314 312 310 311 310 309 309 308 307 307 307 304 302 302
294 299 298 296 295 291 295 288 293 298 301 306 311 315 317 318 319 321 320 320 322 322 325 325 325 324 324 324 323 320 321 317 317 316 313 311 311 310 310 309 309 308 307 307 306 305 304 302 298
297 299 298 297 295 293 292 291 295 296 296 301 306 312 316 318 319 320 321 322 323 323 324 325 325 324 324 323 323 322 320 319 316 314 312 311 311 311 309 309 308 307 307 306 305 303 300 299 298
300 299 296 295 294 290 292 292 294 295 298 301 305 308 312 317 318 320 322 322 321 322 323 324 323 323 323 322 322 321 319 315 313 313 311 311 311 310 308 307 307 307 305 303 300 302 298 298 297
298 294 288 287 288 287 293 290 295 299 301 301 303 307 310 314 317 316 316 317 318 319 322 323 322 322 321 320 320 319 319 316 314 314 311 310 309 307 306 306 305 304 304 302 300 300 299 295 296
296 295 290 282 284 287 291 289 296 301 303 304 305 305 307 309 313 314 315 316 317 319 321 321 321 322 321 319 320 319 318 317 316 311 312 311 308 306 306 305 304 304 303 299 298 299 297 298 299
296 293 296 289 288 287 290 293 297 299 300 304 305 305 305 307 308 311 313 316 317 318 320 321 322 322 322 321 320 320 320 318 314 312 314 312 309 305 304 304 304 301 301 299 297 297 296 299 299
298 299 292 291 284 282 286 287 291 297 298 301 303 305 306 307 306 307 310 314 317 319 321 322 323 322 322 322 322 321 320 318 315 312 311 309 305 304 303 302 299 300 299 298 298 296 298 298 298
296 295 293 293 290 286 283 288 297 298 299 302 303 305 307 309 310 310 313 316 319 321 321 322 323 323 322 323 321 320 321 317 313 310 309 306 304 302 299 301 301 298 297 297 295 297 298 296 297
298 296 295 291 288 288 287 288 299 300 299 300 303 305 308 310 313 314 315 318 319 320 322 322 322 322 323 322 320 317 313 309 307 305 304 304 302 301 301 299 299 299 296 296 296 297 296 296 295

GFSSGP_sfc_thetae_066.txt.gz
Theta_e
325 319 319 315 302 301 297 299 303 302 311 316 316 316 319 324 320 314 338 340 344 344 343 347 346 347 348 348 349 348 348 346 344 342 342 342 342 342 341 342 342 343 342 341 342 344 342 339 338
318 316 318 311 298 295 298 301 301 308 313 323 323 320 316 317 328 330 333 341 345 344 342 344 345 346 347 347 347 346 346 344 343 342 342 342 342 341 342 343 344 346 346 342 342 344 340 337 337
316 315 310 305 300 295 297 301 305 313 320 322 320 324 321 321 328 330 339 344 344 343 340 344 344 345 346 346 345 344 343 341 341 342 342 341 341 342 342 343 344 345 346 344 344 343 337 337 338
314 311 309 299 297 299 300 304 310 315 320 322 322 317 327 332 332 337 341 346 343 345 341 343 342 344 345 345 344 342 341 340 340 341 341 341 341 341 340 340 341 343 345 345 343 338 336 336 336
314 310 300 297 297 300 304 311 315 315 317 318 320 317 321 330 339 339 339 343 342 342 344 346 340 342 344 345 343 341 340 339 340 340 339 340 340 340 339 338 339 340 342 341 336 334 335 335 334
307 308 298 297 297 302 304 315 316 316 317 318 319 319 322 333 335 338 342 341 340 339 342 345 341 342 342 342 340 338 338 338 339 339 339 339 339 338 338 337 337 338 337 336 335 334 333 333 331
304 303 298 297 298 301 306 318 314 315 315 316 322 316 324 328 334 340 340 342 340 340 341 339 339 340 338 337 337 336 337 337 338 338 337 336 335 335 336 336 335 335 335 334 334 333 332 330 328
308 304 298 299 298 299 311 316 317 315 313 323 323 317 319 327 333 337 336 336 337 337 336 331 330 330 326 327 332 335 335 336 336 335 334 333 333 334 334 334 335 335 334 332 330 329 329 326 325
309 301 298 298 299 301 312 312 317 319 319 321 323 323 328 331 332 331 330 330 331 331 326 326 327 326 327 329 333 335 335 335 333 332 331 328 327 327 328 332 333 333 331 329 327 325 323 321 318
305 301 299 303 304 303 309 313 314 315 315 317 320 325 330 330 328 324 324 323 326 324 323 326 326 326 326 326 326 332 332 331 330 328 329 328 330 330 329 330 330 328 326 323 320 319 320 321 319
305 301 304 305 306 306 308 312 316 313 310 316 317 322 327 326 327 324 322 322 321 324 326 325 325 326 324 324 328 329 328 331 330 330 328 331 331 330 331 328 326 324 323 318 318 319 320 320 318
302 306 306 305 310 309 309 314 312 313 315 321 324 326 326 322 323 324 322 320 319 319 321 323 324 324 324 325 329 331 328 329 328 328 331 330 329 330 331 329 327 325 323 321 321 319 318 316 315
303 306 310 309 311 312 313 310 310 315 322 325 326 325 321 322 321 322 321 320 319 318 319 320 323 322 324 325 328 327 328 327 327 329 330 329 329 330 330 329 326 323 322 320 318 317 315 314 313
310 309 309 311 311 313 309 309 312 318 324 323 322 322 322 322 321 319 318 318 319 319 318 318 320 321 323 330 330 327 327 329 328 329 331 333 331 331 329 326 323 320 320 319 317 316 315 313 311
311 307 310 311 312 309 312 307 307 316 322 320 321 320 322 323 321 318 319 319 320 322 323 319 323 329 330 332 330 327 327 327 326 327 333 335 334 331 329 323 319 320 320 319 315 314 313 311 310
305 305 299 308 310 310 310 301 309 318 320 318 319 321 320 321 323 324 323 323 324 322 320 324 326 332 334 333 330 327 327 327 327 330 333 336 334 331 326 324 321 320 318 316 314 314 311 311 311
302 297 298 300 309 307 307 302 311 319 319 318 319 320 320 320 321 323 325 324 324 322 322 325 331 333 334 333 330 329 329 328 332 335 334 335 333 330 327 323 320 319 317 316 314 313 312 310 311
296 297 298 299 304 306 304 304 307 316 318 317 319 318 319 319 319 323 326 326 325 327 328 330 331 333 335 335 332 329 328 329 334 335 334 332 331 328 326 322 320 319 317 315 313 312 312 312 313
301 299 298 301 305 303 303 303 305 312 316 315 318 318 318 319 322 324 325 329 326 327 328 329 330 333 334 332 327 325 326 330 333 333 334 332 330 328 325 321 319 319 316 315 315 312 311 310 313
301 299 299 302 304 303 303 302 304 308 314 316 317 318 319 320 322 321 324 326 328 328 330 330 331 333 334 331 328 326 327 329 331 332 331 330 327 325 322 321 318 318 315 314 313 312 310 311 311
301 299 299 298 303 304 302 300 302 306 313 317 318 319 321 321 321 323 322 325 326 326 328 330 332 333 333 331 328 328 330 330 329 328 328 328 324 324 320 318 319 317 315 313 314 313 311 308 308
298 303 301 300 299 295 301 293 299 303 306 311 315 319 320 321 323 323 324 324 326 327 328 331 332 332 333 332 328 326 325 324 327 328 328 322 322 319 317 318 318 316 315 314 313 312 311 308 304
299 303 302 301 300 299 298 295 299 303 302 305 311 316 320 322 323 323 324 325 327 328 329 329 330 332 333 333 332 329 327 328 330 328 326 323 319 317 316 317 317 316 315 315 313 311 308 304 305
305 303 301 302 300 293 296 296 298 300 302 305 308 311 316 321 323 324 325 326 327 331 331 331 329 329 332 333 333 331 330 329 326 325 322 317 317 313 315 315 316 316 315 313 311 309 306 304 302
303 300 293 291 291 291 297 295 297 303 305 307 308 311 314 317 323 324 324 326 326 328 330 330 330 328 331 331 331 331 331 330 326 324 321 318 315 314 315 315 315 314 314 312 307 307 302 302 300
301 301 294 285 287 291 296 291 298 305 307 309 311 313 313 315 318 323 325 326 327 327 329 329 329 328 329 328 330 330 328 326 325 323 321 316 313 317 317 315 314 313 311 308 302 306 304 300 299
300 297 301 294 294 293 295 297 303 304 305 307 307 310 312 313 317 319 323 326 327 328 327 329 329 329 330 328 329 327 326 322 322 323 320 314 315 316 315 314 313 311 307 302 302 301 299 299 301
303 304 295 297 286 285 292 293 295 299 301 304 305 308 312 315 314 316 318 322 325 327 328 330 329 328 329 329 327 327 326 326 324 322 318 314 317 317 313 312 309 301 302 302 301 299 298 299 301
300 299 299 299 296 289 287 292 302 301 303 305 307 309 311 314 316 316 317 318 321 324 326 327 327 327 327 328 328 326 324 324 323 321 317 315 315 314 310 307 302 301 299 299 298 297 297 298 300
304 301 301 294 292 295 294 293 305 306 307 306 308 310 312 314 316 319 319 320 321 322 324 325 326 326 327 328 327 323 322 321 314 312 310 310 307 305 301 302 299 299 297 297 296 297 300 300 299

GFSSGP_sfc_thetae_069.txt.gz
Theta_e
327 325 320 315 303 303 298 300 306 304 305 317 315 312 309 312 315 306 340 345 346 341 345 349 347 349 349 349 349 349 348 347 345 344 343 343 343 343 344 344 345 346 347 345 343 339 338 337 336
325 317 317 311 300 296 298 304 301 306 312 317 322 318 313 312 325 327 335 341 346 342 344 349 346 348 348 348 348 348 347 345 343 343 343 343 343 343 344 344 344 344 346 344 342 338 337 337 337
320 317 310 306 302 297 297 303 305 308 317 317 318 322 316 316 328 331 338 342 345 341 342 348 345 345 347 347 346 345 344 342 342 342 343 342 343 344 346 346 346 345 345 345 339 337 336 337 338
316 313 310 300 298 301 302 306 311 312 319 321 321 316 328 334 332 336 340 344 343 338 342 343 342 344 346 346 345 343 342 341 341 341 341 343 343 345 345 345 345 345 345 343 337 336 336 336 336
315 311 302 300 300 302 307 309 314 314 316 317 320 316 321 326 337 340 341 346 344 339 343 346 341 343 345 345 343 341 341 341 340 340 341 341 341 342 342 342 344 344 344 339 336 335 334 335 333
308 310 300 297 299 304 307 313 315 314 316 318 318 319 323 335 336 339 343 345 343 337 341 343 343 343 343 342 340 339 339 340 339 339 339 340 339 339 339 340 340 340 338 337 336 335 333 332 330
306 305 300 300 299 302 306 316 313 314 314 317 322 316 326 331 336 341 342 343 339 339 339 338 340 340 337 336 336 337 338 338 338 338 338 337 336 336 336 337 337 336 335 335 334 332 331 329 327
308 306 301 301 298 300 310 311 317 316 316 323 324 316 318 333 336 339 341 340 332 337 335 333 330 333 331 333 335 335 336 336 336 335 334 333 334 334 335 334 335 334 334 333 330 330 329 326 324
311 302 298 300 300 302 309 308 318 320 317 320 324 324 332 333 332 330 332 332 329 328 328 324 324 325 328 328 332 335 335 334 333 333 332 329 327 328 329 333 333 333 331 330 328 327 324 322 320
307 302 301 305 306 304 306 309 313 314 314 315 321 327 331 332 329 326 325 325 322 323 324 322 321 320 321 325 327 332 334 331 330 329 329 326 331 330 329 330 330 329 328 326 326 325 323 323 319
307 302 306 306 307 309 307 309 316 313 309 317 317 324 327 328 326 323 323 323 321 324 322 322 320 320 320 324 328 327 329 328 329 331 331 330 331 332 330 328 325 325 325 321 319 318 322 323 321
303 308 308 308 309 310 308 314 312 313 317 321 325 326 326 325 324 323 319 319 321 322 321 323 322 322 322 326 325 327 325 326 328 330 335 333 331 331 329 326 326 325 324 322 324 323 322 320 317
306 308 310 311 311 312 312 311 311 313 321 325 325 325 324 323 323 323 321 321 320 320 321 321 321 321 320 322 321 322 325 328 330 330 333 331 331 333 330 329 327 326 325 324 323 321 318 317 315
311 310 310 311 311 312 310 311 313 318 322 322 322 323 323 322 320 319 318 318 318 318 318 319 320 322 321 320 318 319 326 325 328 330 330 335 333 334 330 329 327 326 325 324 323 320 318 316 314
310 306 309 309 311 309 311 306 307 319 321 321 320 322 322 323 319 317 318 318 318 318 320 319 320 320 320 321 324 326 327 328 326 327 333 332 333 332 331 329 326 325 325 325 322 320 318 316 312
305 306 300 305 310 310 309 300 305 319 320 318 320 320 320 318 320 319 320 319 320 316 317 318 319 321 323 326 328 328 326 328 328 328 330 333 334 334 332 327 324 325 324 322 320 318 316 313 312
303 297 300 303 309 308 307 303 308 317 318 317 319 318 319 319 321 323 324 323 323 322 320 319 321 324 329 330 331 329 331 326 325 329 332 335 335 333 331 328 327 325 322 320 319 317 316 312 312
296 298 299 299 306 307 304 304 308 314 316 317 318 319 318 319 320 323 324 323 320 323 323 325 328 330 332 334 331 327 327 327 328 331 333 335 334 332 330 329 327 323 321 320 319 317 314 314 313
302 301 300 303 306 303 302 305 306 313 315 314 316 317 318 318 320 323 323 324 321 323 322 325 328 331 332 330 327 324 322 324 327 332 333 334 333 332 331 327 324 323 321 321 318 315 314 312 313
302 300 300 304 305 304 303 302 305 311 314 315 316 317 316 319 319 321 324 323 324 324 327 327 328 330 331 329 327 325 324 325 327 334 333 334 332 331 329 327 324 323 321 320 317 316 313 314 313
302 301 301 300 304 305 303 300 303 308 313 315 316 318 318 318 319 321 322 325 324 325 327 327 328 329 331 331 328 326 326 326 326 330 330 331 331 331 329 327 325 323 322 318 317 315 315 311 312
299 305 303 302 300 293 304 293 301 305 307 312 314 317 318 319 320 322 321 323 326 328 330 330 330 330 332 332 329 326 322 322 325 329 329 328 330 329 326 325 324 324 322 319 317 316 316 314 310
301 305 303 303 301 300 299 295 299 304 302 307 313 316 318 320 321 321 323 323 325 328 329 331 330 331 331 333 331 327 326 326 328 330 329 329 327 326 324 323 323 323 320 320 320 317 315 312 309
306 303 304 304 302 294 298 297 297 300 302 306 310 314 317 319 321 322 323 325 325 331 331 330 330 330 332 333 333 331 328 328 326 330 327 327 325 323 320 320 322 322 317 319 317 316 314 310 308
305 301 294 292 292 292 300 296 299 304 306 307 308 312 315 318 321 322 321 322 324 327 329 330 329 328 331 332 333 333 332 331 330 329 327 325 322 320 319 319 318 319 317 318 316 314 309 305 305
302 302 295 287 289 292 298 292 298 306 307 308 310 312 315 317 319 322 324 324 324 325 328 330 329 328 329 331 333 334 334 332 333 330 328 325 322 322 320 316 315 315 315 317 315 309 306 303 304
302 299 304 297 297 293 296 300 304 305 305 307 307 309 312 315 318 319 323 325 327 327 329 333 330 330 330 332 334 333 334 332 331 330 328 325 323 320 318 316 313 313 313 311 306 302 299 300 301
304 307 297 298 288 287 293 295 297 301 303 305 306 308 311 316 316 319 321 324 327 329 330 333 332 329 330 331 332 332 332 331 329 325 325 323 321 317 315 314 312 310 304 303 302 300 300 299 299
300 300 301 301 297 291 289 294 304 303 304 304 307 308 310 312 317 318 319 323 326 329 330 331 331 330 329 330 332 331 330 328 327 324 324 322 318 315 312 308 304 303 300 299 299 298 298 297 297
305 301 302 295 293 297 295 295 307 307 307 308 308 309 311 313 315 319 320 320 321 324 327 329 330 330 330 330 330 329 327 325 323 321 315 311 304 305 302 302 300 300 299 298 297 296 298 298 298

GFSSGP_sfc_thetae_072.txt.gz
Theta_e
325 321 321 315 301 300 296 299 305 303 305 313 313 312 312 312 311 308 327 330 328 329 347 349 348 349 349 349 349 349 348 347 346 345 344 344 345 345 347 347 347 346 345 341 339 338 336 336 336
322 323 317 308 298 294 296 303 302 305 313 315 313 310 310 311 317 319 326 329 327 341 346 349 346 348 348 348 348 348 347 346 345 344 344 344 345 345 346 346 345 346 344 339 338 337 337 335 336
323 320 308 304 300 295 296 303 305 309 314 314 312 315 315 318 320 323 333 337 341 340 345 348 345 346 347 347 347 346 345 343 343 342 343 344 344 345 345 344 344 345 343 338 338 337 336 335 336
315 312 308 299 296 300 301 305 308 309 313 311 312 312 323 333 329 336 341 343 341 340 345 343 343 345 346 346 346 344 342 341 341 341 343 344 346 347 346 344 344 345 341 337 337 336 335 335 333
315 309 300 298 298 302 305 309 310 308 308 311 313 312 314 318 333 339 341 343 339 338 343 344 340 344 345 345 344 342 341 341 341 342 342 344 345 346 345 344 343 342 339 338 336 334 333 333 331
307 308 298 296 299 303 307 310 311 310 314 312 312 312 308 321 335 339 342 343 338 336 336 340 341 342 342 342 341 340 340 340 339 340 340 341 342 342 343 343 341 339 338 338 336 334 332 332 330
304 302 298 299 299 301 307 311 310 311 310 311 316 309 319 326 336 341 340 339 336 336 329 329 334 339 338 337 337 338 338 338 338 338 337 337 337 338 339 339 338 338 337 336 334 332 331 329 327
307 303 298 299 299 299 307 309 312 312 310 315 320 314 312 318 336 338 338 331 335 336 334 330 334 332 333 335 335 335 336 336 336 335 334 334 334 335 336 335 335 335 334 333 332 330 329 327 324
309 299 297 299 300 302 308 306 311 311 309 316 321 326 328 330 332 331 328 326 326 325 329 332 330 329 330 330 334 335 335 334 333 332 331 329 329 330 330 332 333 333 332 331 330 328 326 323 321
305 299 300 306 305 303 306 305 311 309 309 308 310 327 329 330 328 325 323 321 321 320 322 325 323 323 325 328 329 331 333 331 330 328 328 325 326 328 329 330 331 331 331 330 328 327 324 321 313
306 301 305 305 307 307 306 306 313 311 307 308 309 322 327 326 324 321 321 321 320 320 320 321 321 321 320 320 320 322 327 327 328 329 326 329 327 327 326 324 323 322 324 319 321 320 317 319 316
303 305 306 308 309 308 305 310 309 310 314 320 323 326 326 324 322 321 320 320 318 319 318 319 320 322 321 321 324 326 325 325 325 327 328 329 327 326 324 323 322 321 320 317 317 320 319 315 313
305 306 308 309 309 308 309 307 308 310 319 323 323 323 322 323 321 322 321 322 319 318 318 319 321 321 322 321 322 324 324 323 325 326 329 329 328 326 326 324 323 321 321 320 321 318 315 313 311
307 309 308 309 310 310 307 307 311 312 318 320 321 321 322 321 318 318 317 317 319 317 318 319 318 319 318 317 318 320 322 323 326 327 327 330 329 328 327 326 324 323 322 322 320 317 315 313 310
308 303 306 308 308 306 311 304 305 310 318 318 319 320 320 319 319 317 317 316 316 316 317 316 316 317 316 316 317 319 320 321 322 325 327 329 329 328 328 327 325 323 322 322 320 317 316 311 310
304 303 298 306 307 308 308 300 306 310 310 313 317 316 316 317 317 317 318 318 317 316 316 317 317 315 316 317 317 318 321 322 323 326 327 329 330 329 328 326 323 323 322 320 317 315 312 311 308
301 296 299 302 308 308 306 301 308 310 309 312 316 315 313 316 317 318 319 317 318 318 317 317 317 316 317 319 319 321 324 324 325 326 327 329 330 330 327 324 322 322 321 318 317 315 312 308 308
296 298 300 299 305 306 304 303 307 312 313 314 315 316 315 315 317 321 320 319 318 318 319 317 317 319 320 321 324 325 325 324 325 328 329 331 331 331 328 325 323 322 319 317 315 314 312 309 309
302 300 298 301 306 304 302 303 305 309 311 312 314 314 315 316 320 320 321 322 320 319 318 317 318 319 323 323 322 322 321 322 323 326 329 331 331 331 327 327 324 320 318 316 317 313 310 307 308
301 299 298 303 306 303 302 302 306 308 310 312 314 314 315 316 317 319 318 319 319 318 318 318 320 325 327 327 325 323 322 323 323 327 330 331 331 331 329 327 322 320 318 319 314 311 308 309 310
300 299 300 300 304 305 302 299 301 307 310 312 316 316 317 316 316 318 319 317 319 318 319 321 324 327 328 328 326 324 323 322 321 328 329 330 331 330 327 326 323 320 320 316 314 312 310 307 307
298 304 303 301 299 294 303 292 300 303 305 310 313 316 313 315 318 319 319 319 318 318 322 324 326 327 329 328 325 322 319 317 321 327 329 328 329 329 328 326 324 322 320 317 314 315 311 310 305
300 305 303 302 299 298 298 295 298 303 302 306 311 314 316 317 317 318 320 321 322 323 325 326 327 327 326 328 327 324 321 321 322 324 327 326 327 327 326 324 322 321 320 318 315 313 312 310 304
306 303 302 302 300 292 298 296 296 299 302 305 310 313 316 318 319 320 321 322 324 325 326 328 328 327 328 329 327 327 323 323 323 326 325 325 325 324 324 322 321 319 319 316 315 314 313 305 303
303 300 292 291 291 291 299 297 298 303 306 306 308 312 315 318 319 319 320 320 321 323 326 328 328 326 328 330 328 328 328 325 324 326 325 324 322 320 321 319 318 318 317 315 314 313 308 303 300
301 300 294 285 289 292 298 292 296 306 307 308 309 311 315 316 319 319 319 322 322 323 326 326 327 326 328 329 330 330 329 329 327 328 326 325 323 320 318 318 317 317 315 314 312 306 305 302 302
301 297 303 297 298 294 295 299 303 305 305 306 307 310 313 315 317 319 321 321 323 324 326 327 327 326 327 329 330 330 331 330 329 328 328 324 323 321 319 317 315 313 311 308 305 303 300 300 300
302 305 296 298 289 286 292 294 295 300 302 305 305 308 311 316 317 318 319 323 323 324 326 328 328 328 328 328 330 330 331 331 331 329 324 322 322 319 317 313 312 306 304 303 301 300 299 298 298
299 298 301 300 296 289 288 292 304 303 304 304 307 309 311 314 316 317 319 321 325 325 324 328 329 329 329 329 329 330 330 327 324 323 323 321 319 316 312 306 303 301 300 299 299 298 298 297 297
302 300 301 295 293 297 294 294 308 307 308 308 309 310 311 313 315 317 319 320 321 326 327 327 329 329 329 328 330 329 328 324 321 320 316 314 312 308 305 303 300 300 300 300 298 296 297 296 296

GFSSGP_sfc_thetae_078.txt.gz
Theta_e
318 317 311 305 291 288 285 289 295 296 303 309 309 309 306 308 308 300 322 327 332 330 338 343 347 348 348 348 348 348 348 348 347 347 347 348 348 347 346 344 343 342 341 339 340 340 339 339 339
315 314 309 299 287 282 285 292 299 303 309 312 313 312 312 308 316 319 319 328 332 332 333 341 343 343 347 347 347 347 348 347 346 346 346 347 347 346 344 343 341 340 341 339 339 338 337 335 335
315 316 301 293 286 284 286 294 301 307 311 309 307 313 311 316 320 321 325 327 331 331 333 341 341 339 345 347 347 346 346 345 344 345 347 347 346 345 343 341 340 340 340 337 337 336 333 333 334
305 301 297 289 286 291 293 298 302 307 309 312 311 308 313 320 319 323 331 326 326 328 331 337 341 343 345 347 346 345 344 343 343 344 346 347 346 344 342 340 340 340 339 335 335 333 332 332 333
304 296 289 286 288 293 299 301 306 307 308 312 310 308 311 319 319 327 335 329 327 333 335 332 339 342 344 347 346 344 342 342 342 344 344 346 344 342 341 339 339 338 337 334 332 332 332 331 331
299 295 286 284 289 295 300 305 309 310 311 312 309 311 313 319 319 327 334 333 335 334 335 334 336 338 341 344 343 341 341 341 341 343 343 344 343 340 340 339 338 337 336 335 333 332 331 330 329
295 291 286 287 291 293 300 305 305 310 309 309 313 308 312 314 321 330 332 331 332 333 333 333 333 332 332 340 339 338 339 339 340 341 341 341 340 338 338 338 338 337 335 333 332 330 329 328 327
297 293 287 289 290 291 300 303 307 306 305 316 316 307 306 313 328 330 329 330 328 329 330 330 329 327 328 337 336 336 338 338 339 339 338 338 337 337 337 336 336 335 333 332 330 328 327 326 324
298 289 286 289 290 295 302 299 307 306 310 311 314 313 315 328 328 326 325 326 327 328 329 329 327 327 328 330 334 334 336 336 336 336 336 334 335 334 332 333 334 333 332 331 329 328 324 320 322
295 287 291 295 296 298 300 296 305 305 306 309 312 316 323 327 326 323 322 322 324 324 325 327 327 327 326 326 326 327 328 332 332 332 329 329 328 329 330 331 332 332 331 330 328 326 322 317 308
294 292 299 299 300 301 301 301 307 306 304 310 308 313 325 323 322 321 321 320 321 323 325 326 326 326 324 322 323 327 325 325 325 325 327 328 328 327 327 327 325 324 325 320 319 313 312 310 305
293 299 299 299 304 303 301 303 310 309 310 317 318 325 322 320 320 320 319 318 318 320 321 325 326 325 324 322 321 325 324 324 323 325 325 324 323 320 320 320 319 318 316 314 311 312 308 306 305
296 299 302 303 305 302 305 303 309 308 317 317 323 322 320 319 320 321 319 318 317 316 317 319 322 323 323 322 323 324 323 323 324 324 324 323 319 317 316 316 315 314 312 311 312 309 307 305 305
301 301 301 302 303 302 302 304 307 312 316 313 315 317 317 318 319 319 317 315 316 317 316 317 318 319 321 321 320 321 323 323 325 325 324 322 319 319 316 315 314 314 312 313 312 309 307 305 303
302 297 298 298 300 300 301 298 300 311 313 312 315 318 314 315 317 317 318 315 316 316 317 317 318 319 318 317 319 321 322 325 324 324 325 322 321 319 317 314 315 314 312 314 311 309 308 305 304
298 295 290 298 299 302 301 293 305 310 311 309 315 315 313 314 316 317 317 317 317 316 316 318 319 318 318 317 318 317 319 322 322 323 324 324 323 321 318 316 316 316 314 314 311 310 308 305 303
293 289 291 295 300 301 299 295 303 309 311 311 312 310 309 310 314 316 317 315 316 316 316 316 317 316 315 315 315 314 315 316 316 320 321 322 323 322 321 318 317 317 316 314 313 310 308 304 301
289 290 294 293 297 300 296 296 302 306 307 308 307 308 308 309 310 314 316 316 316 316 315 315 315 315 314 315 315 314 315 316 315 315 318 320 321 322 321 319 317 316 314 312 310 309 308 305 303
295 294 293 296 299 299 297 296 298 304 305 304 305 307 307 309 311 313 314 315 314 315 314 312 312 313 314 313 312 311 311 313 313 314 317 320 321 322 320 318 315 315 313 313 311 309 307 305 303
296 294 293 297 300 298 295 293 296 304 305 306 306 307 307 309 311 312 312 312 312 313 312 311 310 311 312 312 312 311 312 315 315 315 317 320 322 323 321 319 316 316 313 312 310 309 305 304 304
296 293 294 293 297 296 294 292 295 301 305 308 309 309 310 310 310 311 312 311 312 312 312 311 311 311 312 313 312 314 314 314 314 315 316 320 323 325 323 321 320 317 315 312 310 308 306 304 304
292 299 298 297 293 287 294 285 293 297 302 306 308 308 310 311 313 312 311 310 311 311 313 313 313 311 313 314 313 313 313 312 315 315 317 321 323 324 324 323 321 317 317 313 311 309 307 307 305
295 301 299 298 293 289 290 288 292 297 298 303 307 309 310 312 312 312 312 312 312 313 312 312 313 313 313 315 315 315 314 316 316 315 316 321 323 324 324 324 322 318 315 315 313 311 310 310 307
302 298 296 295 292 285 291 290 289 292 297 303 307 309 310 311 313 313 314 313 312 314 313 312 312 313 314 315 317 318 317 317 314 314 316 319 322 323 324 324 322 321 317 315 313 311 311 310 306
298 292 284 283 282 283 294 291 293 298 299 304 307 308 310 312 312 313 313 312 312 312 312 312 312 312 314 317 319 320 320 318 316 314 317 318 320 321 323 323 322 320 318 315 315 313 312 308 306
294 293 285 281 281 285 295 289 292 300 302 303 307 311 311 311 312 311 313 313 310 311 312 312 312 313 315 316 321 322 322 320 318 316 319 320 321 322 323 323 323 317 315 314 313 308 305 304 304
294 290 297 290 290 285 289 293 298 298 298 299 302 310 310 311 312 313 313 313 313 310 311 312 314 315 317 318 321 323 322 320 319 318 318 322 322 322 321 321 317 314 312 309 307 305 304 305 303
297 299 290 290 283 282 287 288 290 295 296 298 299 305 309 310 312 313 315 315 314 315 314 315 315 315 318 320 321 322 322 322 320 318 318 320 321 319 318 316 315 312 310 307 306 304 303 301 301
294 293 294 294 291 283 281 286 295 297 299 297 298 301 305 310 312 313 314 316 317 317 317 316 317 318 320 321 322 322 321 321 321 318 318 317 317 317 317 315 313 310 308 305 303 302 301 300 299
298 296 295 287 287 288 285 288 298 299 299 298 298 302 302 305 309 312 315 315 317 318 318 319 319 320 322 323 322 322 323 321 320 319 318 318 316 317 316 311 311 308 305 302 301 299 300 299 299

GFSSGP_sfc_thetae_084.txt.gz
Theta_e
315 312 307 300 289 287 284 287 290 293 298 305 308 306 303 305 304 296 318 323 332 338 345 344 345 348 347 348 348 348 349 349 349 349 348 348 347 346 344 344 344 344 343 340 339 338 336 336 335
311 310 303 294 286 282 284 288 290 298 305 309 309 308 309 307 314 316 317 322 331 334 342 344 345 346 348 347 347 347 348 348 348 348 347 347 346 344 344 344 343 343 344 340 340 340 338 334 333
311 308 297 289 283 283 284 290 293 298 307 306 304 310 309 312 316 318 323 326 330 331 334 343 344 345 346 346 347 347 346 346 346 346 346 346 344 343 344 343 342 342 343 341 340 339 336 333 332
302 299 293 288 284 288 291 294 295 296 305 308 306 304 309 317 315 318 327 332 329 329 331 336 341 344 345 347 347 347 346 345 344 344 344 345 344 343 343 342 341 342 341 337 338 337 334 333 331
299 293 287 284 285 290 292 295 295 298 302 308 307 304 306 316 320 327 331 330 326 328 328 331 337 340 344 346 346 345 344 344 343 343 343 343 343 342 341 340 340 338 337 336 337 335 332 331 330
295 292 284 282 286 291 293 296 302 303 305 308 306 305 308 316 321 326 331 331 328 328 329 331 334 338 339 342 344 343 343 342 343 342 341 341 340 340 339 339 338 335 335 337 337 334 332 330 329
292 289 284 285 287 290 293 299 304 305 305 306 309 304 308 313 323 330 330 331 328 330 329 329 331 332 336 334 338 339 341 341 341 340 339 338 338 337 338 337 335 334 334 336 334 331 330 329 328
294 291 285 285 286 288 294 298 303 305 304 312 311 305 303 312 327 330 328 329 331 329 327 326 328 329 330 330 334 335 337 339 339 338 337 336 336 336 336 333 333 332 331 334 334 331 329 328 327
294 288 284 287 288 293 296 295 302 305 306 309 312 312 313 321 328 326 325 326 327 327 324 326 327 327 326 328 331 335 336 337 336 337 335 333 333 331 329 330 330 330 329 330 332 331 329 326 326
292 286 288 293 293 294 297 294 297 303 303 306 309 315 315 326 324 321 321 322 323 324 325 326 325 324 324 327 327 331 330 332 335 334 333 332 330 326 327 330 330 328 327 328 331 330 328 324 320
291 290 293 295 296 295 295 295 304 302 300 306 306 310 315 322 321 319 320 322 322 325 325 325 323 323 322 323 324 327 329 330 333 333 331 330 327 326 324 324 323 320 321 316 316 314 313 314 314
290 295 294 296 297 297 296 299 305 303 304 313 312 315 321 319 317 318 318 320 322 323 324 324 323 322 321 323 327 327 328 329 331 330 329 327 326 322 320 319 317 314 311 309 306 306 307 309 311
292 295 297 298 299 298 300 299 303 306 310 320 322 320 319 319 315 319 319 319 320 321 323 323 322 320 319 321 323 324 326 328 327 329 327 326 323 321 319 316 314 313 311 308 305 304 305 307 308
296 296 297 298 297 298 299 301 304 304 314 312 316 315 318 318 316 316 316 317 318 318 322 322 320 319 318 319 321 323 324 325 326 326 325 324 322 319 317 313 313 312 312 308 306 304 304 304 305
297 293 295 295 294 297 298 295 300 305 314 311 311 313 314 313 314 314 316 316 317 318 319 321 320 319 319 318 318 321 325 325 324 324 323 321 320 318 316 313 312 311 312 308 306 304 303 302 302
293 292 287 292 295 297 297 291 297 308 311 310 310 311 310 310 313 315 316 317 317 317 318 320 321 320 319 319 319 320 323 324 324 323 322 320 318 317 314 313 312 311 312 309 306 304 302 301 300
290 285 286 292 296 295 295 292 295 306 307 305 306 309 307 311 313 315 316 316 316 317 318 318 319 318 317 318 319 321 321 322 322 321 320 319 318 317 315 314 313 312 313 310 308 306 304 302 300
286 287 289 289 293 294 292 294 297 303 305 303 306 306 305 306 310 315 316 316 316 317 318 316 316 316 316 315 316 318 318 318 322 320 319 319 318 317 315 314 314 313 312 310 308 307 306 303 302
291 290 288 291 294 293 292 291 295 299 302 302 304 304 304 304 311 316 315 316 315 316 316 315 314 315 315 315 315 316 316 316 318 319 319 319 319 318 316 315 315 314 311 311 309 307 306 304 301
292 290 289 292 295 294 293 292 295 296 300 303 303 304 304 304 308 312 313 313 314 314 315 315 314 314 316 316 316 317 316 314 315 316 319 320 319 319 318 317 314 313 312 310 309 308 306 305 302
291 290 289 289 293 293 290 289 292 296 301 303 304 306 306 304 306 309 310 312 313 312 313 314 313 314 315 316 313 312 313 314 313 313 314 317 319 320 320 318 316 314 313 311 310 307 306 304 302
288 294 293 292 289 285 291 283 289 294 295 301 303 304 306 305 307 308 310 310 311 312 313 313 314 313 314 315 313 310 313 312 314 311 313 315 318 318 319 318 316 314 314 311 311 310 307 306 303
292 296 294 293 289 287 287 285 288 292 294 297 301 304 306 307 307 307 309 309 312 312 312 311 312 312 312 313 313 309 312 313 306 308 309 310 313 316 318 318 316 314 314 313 311 309 306 306 305
299 294 293 291 289 282 287 287 286 289 294 297 300 304 306 307 308 308 309 311 311 312 312 312 309 310 312 312 310 308 307 307 307 307 308 309 311 313 315 318 318 317 316 314 312 311 309 310 309
295 289 282 281 281 281 289 287 290 294 296 298 299 303 306 308 308 308 308 309 310 309 310 311 310 309 310 310 310 310 309 308 309 310 309 309 309 310 314 316 317 317 318 318 316 313 312 309 308
291 290 282 280 279 282 290 285 290 298 299 300 300 303 306 307 309 309 309 309 309 309 309 309 310 310 310 310 310 311 310 311 311 311 312 311 311 312 314 317 320 320 320 319 316 315 314 313 311
290 288 293 285 285 283 286 290 296 298 297 297 297 304 305 306 309 310 311 310 310 310 309 310 310 310 310 310 310 310 310 310 311 312 311 312 312 313 313 315 317 317 316 315 316 315 312 311 311
292 295 287 286 280 280 283 285 288 294 296 295 296 302 304 306 308 310 311 311 311 311 311 311 311 310 310 310 310 310 311 311 312 313 314 315 313 313 315 316 317 316 315 315 314 312 311 309 308
290 289 289 290 286 281 280 283 293 296 297 297 296 300 303 305 307 309 312 313 313 312 311 311 310 310 309 310 310 310 311 312 313 313 315 316 315 315 317 317 317 315 315 313 312 311 309 308 307
292 290 291 286 283 284 283 286 295 296 297 297 298 298 302 306 307 309 310 310 312 312 311 311 311 311 311 311 311 311 312 312 314 316 318 318 316 316 318 318 317 316 315 312 310 308 307 306 303

GFSSGP_sfc_thetae_087.txt.gz
Theta_e
323 315 314 308 299 297 294 295 297 298 301 310 311 310 309 311 308 303 325 331 338 345 348 347 347 348 348 350 350 350 350 350 350 349 349 348 348 347 346 345 344 344 343 340 339 338 338 339 338
316 313 310 302 297 293 295 296 296 301 307 312 311 312 312 310 319 321 326 328 334 345 348 347 345 346 348 348 349 349 350 349 348 349 348 347 346 345 345 344 343 343 342 339 338 338 337 336 335
316 310 307 299 294 294 294 297 300 301 307 308 309 314 312 315 321 323 328 330 331 340 344 347 344 344 347 347 349 349 348 348 347 347 347 346 345 345 345 343 342 342 343 341 338 336 334 333 334
310 308 301 298 294 296 297 300 300 300 306 312 311 309 314 319 319 322 331 336 334 338 335 334 340 342 346 347 348 348 347 346 345 346 346 345 345 345 344 342 342 342 342 341 339 335 332 333 332
306 303 297 294 294 296 298 300 300 300 304 310 311 308 310 319 325 326 334 335 335 336 335 334 335 340 342 347 347 346 345 344 344 344 343 343 344 344 342 341 341 341 341 341 337 333 331 331 330
303 301 295 292 293 296 299 302 300 303 306 311 310 309 312 321 323 329 333 333 334 335 335 333 335 338 338 341 344 343 343 343 342 342 341 342 342 342 341 340 339 338 339 338 335 333 331 330 329
301 299 293 292 293 296 299 303 306 307 309 310 314 308 315 318 325 332 333 334 334 332 335 335 334 335 332 335 338 339 340 341 340 340 339 339 339 339 339 338 336 337 337 336 334 332 330 329 328
302 301 293 294 294 295 300 302 306 307 306 315 317 310 310 315 329 332 332 332 333 331 332 334 335 337 334 332 333 334 337 338 339 338 337 336 336 337 336 334 335 337 337 335 332 331 329 328 327
301 297 293 294 294 298 300 300 305 311 311 313 316 315 316 325 329 328 327 328 328 330 330 330 331 333 335 332 334 335 337 337 337 337 335 334 338 336 333 331 333 336 335 332 331 330 328 327 326
300 296 295 299 299 299 301 300 301 305 308 309 313 317 320 326 325 323 323 324 325 325 328 329 328 329 328 333 332 334 336 337 337 336 337 336 337 334 331 330 330 333 333 331 330 329 327 324 323
298 297 298 300 301 301 300 300 303 305 304 309 310 313 317 324 324 322 322 324 325 327 327 328 327 327 325 326 328 333 332 333 334 334 336 334 332 331 329 329 326 330 331 329 328 326 324 323 322
297 299 300 301 301 301 300 304 306 307 308 316 315 316 320 322 322 320 320 323 324 326 327 326 324 324 324 324 325 328 330 331 331 331 332 332 329 327 326 325 323 324 327 329 328 324 324 323 321
297 299 300 301 300 302 302 302 304 307 314 319 319 320 322 321 321 321 320 322 323 323 323 323 322 323 322 323 325 327 327 330 330 330 332 330 326 324 324 323 320 319 319 321 321 321 321 321 320
301 299 300 302 302 302 301 303 307 309 317 321 321 321 321 320 320 318 318 318 320 320 323 321 320 321 320 323 326 327 327 329 328 329 331 328 326 324 321 320 318 317 316 318 319 320 320 320 319
301 298 300 301 300 301 302 300 303 309 317 314 316 317 317 317 319 315 318 318 319 319 321 320 319 320 319 320 324 326 327 328 326 327 328 325 323 322 320 318 318 317 315 315 313 315 317 317 317
298 297 294 297 300 301 302 297 302 308 314 313 313 314 314 316 317 317 318 318 320 319 320 320 320 319 320 320 322 324 325 325 325 325 325 324 323 321 320 318 318 319 316 313 313 312 313 313 313
295 291 292 295 300 301 301 298 303 310 312 312 313 313 313 314 316 316 318 318 318 319 319 319 320 319 320 320 323 323 323 324 324 323 323 322 321 320 319 318 318 319 317 315 313 311 311 309 309
290 291 292 293 298 298 297 298 302 304 309 309 310 313 313 313 313 317 318 318 318 319 318 318 319 318 318 319 320 321 322 323 322 321 322 322 321 321 321 320 318 318 317 316 314 313 312 310 309
294 293 292 296 298 297 297 297 300 302 306 307 309 312 312 312 313 317 317 317 318 319 317 316 316 317 317 319 318 318 317 320 320 321 321 322 322 321 322 319 318 319 318 317 317 314 313 311 310
295 293 293 296 297 297 297 297 301 301 304 306 308 311 312 310 311 314 315 316 316 316 316 316 315 316 317 319 319 318 317 319 319 320 320 320 320 320 321 321 319 318 318 319 317 317 314 315 311
294 293 293 293 296 297 296 295 298 301 304 307 308 311 313 311 310 312 312 315 315 315 315 316 315 316 317 318 317 315 316 316 316 318 318 320 321 322 321 321 321 321 320 318 319 319 317 315 312
291 296 296 294 293 288 297 288 296 301 301 304 307 309 311 311 311 312 311 312 314 315 316 316 316 316 317 318 317 315 314 315 317 317 318 319 321 323 322 322 322 322 321 321 321 320 319 318 314
294 298 296 295 293 292 293 290 295 297 298 302 304 308 310 312 312 311 313 313 313 315 315 317 315 315 317 318 318 317 316 318 317 317 318 319 323 324 324 324 325 324 324 323 322 320 319 318 319
299 296 295 294 293 287 292 291 293 296 299 301 304 307 310 312 312 313 315 315 314 314 315 314 315 315 316 317 318 316 319 318 314 317 316 317 319 321 323 325 325 325 324 323 323 322 321 320 319
297 293 286 285 285 285 293 290 294 299 301 302 304 306 310 312 313 313 312 313 314 313 313 313 313 315 316 315 318 317 317 317 316 315 316 315 316 317 319 322 323 323 324 324 324 323 322 321 320
294 294 287 281 283 287 291 288 294 302 304 305 305 305 310 311 313 314 313 314 314 313 312 312 312 313 316 316 316 317 317 316 316 317 317 316 316 317 319 320 322 323 324 324 324 325 324 323 321
293 289 296 288 289 288 291 294 299 302 303 302 303 306 309 311 313 313 315 315 315 314 313 312 311 312 315 316 316 316 317 316 316 317 318 318 319 319 320 321 322 323 324 324 325 325 323 322 321
296 298 289 290 282 281 287 289 292 297 300 302 303 305 309 311 312 314 315 315 316 315 315 313 312 313 316 316 317 316 316 317 318 319 318 319 320 320 321 321 322 322 324 325 324 322 322 319 317
292 291 293 293 290 285 283 288 299 300 302 302 305 304 307 311 312 314 316 317 317 317 316 315 315 315 315 316 316 317 317 317 318 318 319 320 321 321 320 321 321 321 320 317 315 317 318 314 313
294 292 292 287 286 289 288 289 300 303 303 304 304 305 305 310 312 314 316 317 316 316 316 315 315 315 316 316 316 316 317 317 317 317 318 320 320 322 321 321 320 319 318 318 316 316 314 313 312

GFSSGP_sfc_thetae_090.txt.gz
Theta_e
325 321 322 316 304 304 301 300 305 303 305 310 312 312 312 314 309 305 330 333 342 346 349 348 347 349 350 350 350 350 350 351 350 348 348 349 349 349 348 347 346 346 345 342 341 341 340 339 338
321 319 320 313 301 297 300 303 302 305 307 312 312 313 314 311 320 324 328 337 335 343 348 349 346 347 347 348 349 350 351 351 349 348 349 349 349 348 347 346 344 344 343 340 339 341 339 338 337
322 320 312 307 303 298 300 303 304 307 308 309 310 317 315 312 324 327 334 336 338 338 347 348 345 344 346 348 349 348 349 348 347 347 349 348 348 347 345 343 342 342 342 338 338 337 337 336 336
318 314 311 302 299 302 302 305 307 307 310 310 313 311 318 323 324 329 333 337 337 339 345 342 338 342 345 347 347 345 346 346 346 346 347 347 346 346 344 342 341 341 341 338 337 335 334 334 334
316 312 302 299 300 302 305 306 307 306 307 311 315 311 315 322 327 329 332 336 338 339 344 342 333 339 340 341 344 345 346 345 345 345 345 345 345 344 342 341 341 341 341 337 334 333 332 332 332
309 309 299 297 299 303 305 307 307 308 309 310 313 313 316 326 326 331 335 337 339 341 342 343 335 340 338 337 335 342 344 344 343 343 343 344 343 342 341 341 341 341 339 336 333 332 331 330 330
306 303 299 298 298 301 304 308 307 308 308 309 316 310 316 323 328 336 336 338 335 338 339 340 342 341 334 330 329 330 342 342 342 341 341 340 340 339 340 340 340 339 337 334 333 331 330 329 328
309 305 299 300 298 299 305 307 309 309 308 318 318 310 312 323 331 335 336 336 335 334 336 338 339 337 339 337 334 335 338 338 339 339 339 337 338 338 337 337 338 337 335 334 332 331 330 328 327
310 301 298 299 299 302 306 305 310 313 312 314 317 319 321 327 331 330 332 332 335 333 333 333 337 335 334 335 337 334 336 337 337 338 336 335 340 338 337 335 336 336 334 332 331 330 328 327 326
305 301 301 304 305 304 306 307 308 307 309 311 314 321 323 328 328 326 327 329 330 332 333 333 334 337 334 335 336 336 335 337 340 341 340 339 339 338 335 335 335 334 332 331 330 329 327 324 323
304 300 304 304 306 307 306 307 309 307 306 311 311 315 322 326 326 327 326 328 328 331 332 332 331 333 331 335 336 338 333 334 335 337 338 338 337 337 333 335 336 335 330 328 327 326 325 325 323
301 304 304 306 307 306 305 309 307 308 309 314 319 320 321 324 325 326 326 326 327 329 331 330 329 330 330 328 330 332 331 332 331 331 333 339 333 333 331 332 333 332 330 328 328 325 328 326 324
303 304 306 306 306 306 307 306 306 307 311 315 320 319 321 324 325 325 325 326 327 326 328 328 326 327 327 324 326 328 330 332 331 330 331 332 333 331 328 330 331 331 331 330 328 328 327 325 323
305 305 305 306 306 307 305 305 307 309 316 316 320 321 324 324 323 321 322 322 323 325 324 325 323 324 326 324 325 326 328 331 330 330 329 329 331 330 327 327 327 329 331 331 329 327 325 323 322
305 301 303 304 306 305 307 302 304 311 316 316 320 322 322 322 323 320 321 321 322 324 322 322 321 322 322 323 324 328 326 330 328 327 327 326 330 328 327 324 324 325 327 328 327 326 324 322 321
301 302 298 302 303 305 306 300 308 311 313 314 317 319 320 321 322 320 322 322 323 322 322 321 321 320 322 323 323 326 329 328 328 326 324 324 326 326 324 321 321 322 323 322 323 322 320 320 319
300 296 298 300 304 303 304 302 308 312 312 312 316 318 319 320 322 321 322 324 322 321 321 320 320 321 321 323 324 325 325 325 325 325 323 323 325 324 323 321 321 320 318 318 319 319 320 318 317
296 296 297 297 302 303 302 303 308 310 310 312 315 318 319 319 320 321 320 322 322 321 322 320 321 320 321 323 322 323 322 323 324 324 323 325 324 324 322 321 322 320 318 319 319 317 318 317 315
299 298 296 300 302 300 300 301 305 309 309 311 313 315 318 319 321 321 321 320 321 319 320 321 321 320 320 320 318 319 319 321 321 322 324 324 323 323 324 321 322 321 320 321 321 319 317 314 315
298 296 296 300 302 300 300 300 306 308 309 311 312 315 317 319 319 319 320 320 319 318 318 319 322 321 322 321 320 320 320 320 320 321 323 325 324 324 325 324 322 323 321 322 320 318 317 318 316
297 296 297 296 300 302 299 298 302 307 309 311 313 315 317 319 318 318 318 319 318 318 319 318 319 320 322 323 320 318 318 318 318 319 320 323 325 325 325 325 324 324 324 322 322 322 322 319 320
293 300 298 297 296 292 299 290 300 304 305 308 310 314 316 319 319 318 318 318 320 320 321 322 319 319 321 321 320 318 317 317 318 318 320 322 325 326 324 325 325 325 324 323 324 324 324 323 321
295 300 298 298 297 296 295 292 299 303 301 305 309 312 316 319 320 318 319 319 319 319 321 322 320 319 319 321 320 317 316 321 320 319 318 319 322 322 323 325 325 325 325 325 326 325 325 324 323
301 299 298 298 297 289 293 293 296 300 302 305 308 311 315 318 320 320 320 320 320 319 320 322 321 319 319 320 319 317 315 317 317 317 317 318 318 320 322 324 326 326 325 325 326 327 327 325 325
299 295 289 288 288 287 295 294 297 303 305 307 308 310 315 318 319 320 319 319 319 318 318 320 320 319 319 319 320 320 321 320 321 319 318 319 320 320 321 325 325 326 327 329 330 329 328 328 326
295 295 291 284 287 290 296 291 297 305 308 310 311 312 314 317 320 320 320 321 320 319 318 317 317 317 320 321 320 323 324 322 322 323 323 322 322 324 325 326 326 327 328 329 329 328 327 327 327
295 293 299 293 293 290 294 298 303 306 306 308 309 309 312 316 319 321 321 322 321 320 320 319 319 320 320 320 322 322 323 323 322 322 324 325 324 324 327 325 325 325 325 325 325 325 325 327 328
296 299 291 293 284 284 291 293 295 300 303 305 307 309 313 317 319 320 322 322 322 322 321 321 320 319 322 323 322 322 323 323 323 323 322 323 324 323 322 324 324 324 324 324 325 326 326 326 327
294 293 295 296 293 287 286 292 302 301 305 305 307 310 312 317 319 320 321 323 323 323 322 321 320 319 320 322 323 323 323 323 323 323 323 323 323 323 323 323 324 324 323 325 325 326 326 322 319
298 295 296 290 290 293 292 292 304 304 308 308 309 310 311 316 319 320 321 322 323 323 322 320 320 320 321 322 323 323 324 324 323 322 324 325 324 325 324 323 322 323 324 325 324 321 317 316 316

GFSSGP_sfc_thetae_096.txt.gz
Theta_e
325 322 318 316 303 303 300 303 307 305 305 311 312 309 307 309 306 304 333 338 341 343 348 348 349 351 351 351 350 350 351 351 350 350 350 350 349 349 348 348 348 348 347 345 345 344 343 342 342
320 319 317 311 301 297 300 306 304 307 309 311 311 311 309 307 316 321 333 339 339 339 348 349 347 350 351 350 349 350 351 351 350 350 349 349 349 349 348 348 346 346 346 343 343 343 341 340 340
322 321 309 306 303 298 300 305 306 309 310 309 308 312 312 310 317 323 336 336 337 339 343 349 345 347 350 349 349 349 349 349 348 349 349 349 349 349 348 346 344 344 345 342 342 341 339 339 338
317 314 311 301 298 303 304 307 308 307 309 311 310 307 313 320 320 329 335 335 338 340 343 343 344 345 347 349 348 346 346 344 346 347 348 349 349 348 347 344 343 344 344 343 340 338 337 337 336
315 311 302 301 301 305 308 308 308 306 307 309 310 308 312 319 327 331 333 337 339 342 344 345 341 340 340 346 346 341 336 336 342 345 344 346 346 346 344 342 342 342 342 342 338 336 335 335 334
307 308 299 297 302 306 307 309 308 307 308 309 309 309 312 325 327 332 338 340 344 345 346 343 340 338 338 342 337 336 336 330 335 339 342 345 344 343 341 341 340 340 340 339 338 336 335 334 333
305 303 300 301 302 304 306 311 308 307 307 307 312 307 314 323 332 337 337 340 341 344 343 345 346 342 338 338 334 333 334 332 332 329 334 342 340 340 340 340 339 338 337 336 335 334 333 333 331
307 305 301 302 301 302 308 308 310 307 307 313 313 306 310 327 334 336 337 340 339 340 342 341 341 343 342 336 332 330 332 331 329 330 331 337 336 338 338 337 337 337 335 334 333 332 332 330 328
312 301 298 300 302 304 309 306 310 312 309 311 312 313 317 326 332 331 332 336 338 336 338 338 338 341 342 340 333 331 333 329 326 330 327 335 337 337 337 335 335 335 333 332 332 331 329 327 326
306 301 300 305 307 305 307 306 308 307 307 308 310 319 319 322 326 326 328 330 334 335 335 333 336 337 338 337 334 330 330 330 328 328 326 337 336 337 336 333 333 333 332 331 330 328 326 324 319
306 301 305 306 308 308 306 306 309 306 304 309 309 312 316 322 324 326 327 332 332 334 333 333 334 336 336 333 333 329 328 328 327 326 323 336 337 335 334 330 330 328 329 326 325 322 319 317 317
302 306 306 307 307 307 305 308 306 307 307 311 312 315 317 319 323 324 329 329 329 332 333 334 335 334 334 334 331 329 327 324 328 328 330 335 334 334 332 329 327 323 323 320 318 318 319 317 318
304 305 307 308 308 308 309 306 306 306 309 311 313 315 317 319 321 329 330 330 332 330 331 333 332 333 332 331 332 331 328 327 329 330 333 335 333 333 332 328 323 321 321 319 318 320 319 319 318
307 307 306 308 307 308 306 306 307 308 310 310 312 315 318 319 322 328 329 326 327 328 329 331 330 331 330 330 330 331 329 327 330 332 334 334 333 332 330 327 323 323 322 321 320 322 320 318 319
307 302 304 306 306 306 308 303 303 309 311 309 311 314 318 320 325 325 328 325 326 327 327 327 327 326 327 329 329 329 330 329 328 328 329 332 332 330 329 328 324 326 324 322 323 322 321 317 318
302 302 297 304 306 307 306 298 306 311 310 308 312 314 318 320 322 325 327 325 326 326 324 325 325 324 325 329 327 327 330 328 327 327 328 328 328 329 329 328 326 326 326 324 325 321 318 316 316
300 294 297 299 307 306 305 300 306 311 311 310 311 313 316 319 322 325 326 326 325 326 324 324 324 323 324 326 328 327 328 329 327 327 328 327 326 327 328 328 327 327 327 326 323 320 317 315 315
294 295 297 297 302 305 303 301 306 308 310 310 311 312 314 318 320 325 325 325 325 324 323 323 322 324 324 324 324 327 327 328 328 326 327 326 325 326 326 324 325 325 324 321 320 318 318 316 315
299 298 297 301 305 304 303 302 304 308 308 308 310 311 312 317 322 325 325 324 323 322 322 322 322 322 322 320 319 322 322 325 324 326 326 325 323 322 321 320 321 319 318 318 320 317 314 314 314
298 296 296 301 304 303 302 300 304 306 307 307 307 310 313 317 322 322 323 322 322 321 321 322 321 322 322 321 320 320 321 321 321 321 321 322 320 321 319 318 318 319 318 317 317 316 315 314 314
298 297 297 297 301 303 301 299 301 305 307 308 309 311 313 316 320 321 321 321 321 319 320 321 322 322 322 322 320 319 320 319 318 318 318 319 320 320 320 319 318 319 319 318 318 318 316 313 314
293 301 300 299 297 291 301 291 300 303 304 307 308 309 313 313 321 321 321 320 320 319 321 321 323 323 321 322 320 318 316 314 316 317 317 318 319 320 320 322 321 320 321 319 319 320 318 318 312
296 301 299 300 296 295 295 293 297 303 301 304 308 311 312 314 321 320 321 321 321 321 322 321 322 322 322 322 321 319 317 317 316 315 314 317 318 319 320 321 321 321 321 321 321 320 319 319 319
301 299 299 298 296 288 293 294 294 298 302 305 308 310 315 314 320 321 322 322 321 322 321 322 321 321 322 323 321 319 318 316 314 314 313 315 317 318 319 320 321 321 321 321 321 321 321 321 320
298 295 288 286 287 286 297 294 297 303 306 307 308 311 315 316 319 320 319 319 321 320 320 320 320 318 321 322 322 321 319 318 316 315 315 315 315 316 316 316 316 319 321 321 321 321 321 321 320
295 295 289 282 285 289 298 292 297 305 307 309 311 313 314 316 320 320 320 319 321 320 319 319 320 319 320 321 321 321 319 318 318 317 317 317 315 315 316 317 317 320 321 322 323 322 322 322 322
295 292 298 292 293 288 292 297 304 305 306 308 308 310 313 315 318 319 321 320 320 321 320 320 320 320 319 321 322 321 320 320 318 318 318 318 317 317 317 317 317 319 320 322 322 322 321 322 321
296 299 291 292 284 282 289 291 294 301 303 307 307 309 312 315 318 319 321 321 321 321 321 322 321 320 320 319 321 321 320 319 319 318 317 318 317 318 317 318 317 318 318 322 322 321 321 320 320
292 291 293 293 292 285 285 290 302 302 304 306 308 311 312 316 317 319 321 323 322 322 322 322 321 320 320 321 321 321 320 319 319 319 319 320 318 318 317 317 317 318 319 319 320 320 321 320 320
298 293 293 287 287 292 290 290 304 305 305 306 307 309 314 315 317 319 320 323 322 321 321 321 321 320 321 322 322 321 321 321 320 320 321 321 321 320 318 318 320 319 319 321 320 320 320 319 318

GFSSGP_sfc_thetae_099.txt.gz
Theta_e
322 319 312 306 295 292 289 294 299 299 301 305 307 306 303 303 303 298 327 334 344 344 347 349 349 349 349 350 350 350 351 351 351 351 350 349 349 348 348 347 347 349 349 346 345 345 345 345 345
313 314 307 301 291 287 291 298 297 302 306 308 308 308 305 303 323 328 329 335 339 345 345 346 348 349 349 349 349 350 351 351 351 350 350 349 349 348 348 348 347 348 347 344 345 345 344 343 343
317 317 300 296 292 289 290 298 299 302 306 305 304 307 308 307 321 328 332 335 333 339 345 346 346 348 349 349 348 349 350 348 349 349 350 350 349 349 348 346 345 346 346 343 343 343 342 341 340
312 306 301 292 291 297 298 299 301 303 305 306 306 306 309 315 317 330 331 333 331 336 345 342 343 346 349 349 348 349 349 347 347 348 349 349 348 349 347 345 344 344 344 344 340 340 340 338 337
304 300 293 291 294 299 304 302 304 303 303 308 305 305 307 317 329 329 331 334 333 337 341 342 341 344 347 349 349 346 345 346 344 343 344 344 344 346 345 343 343 342 342 341 340 339 338 336 335
299 298 289 287 293 300 303 303 305 305 304 306 304 306 308 322 325 330 333 334 336 335 341 340 341 341 342 344 346 341 339 340 340 340 340 340 342 343 343 343 342 341 341 339 338 337 336 335 334
296 293 290 292 295 298 302 305 304 304 301 303 304 301 312 324 328 331 333 334 333 334 335 337 337 339 339 339 338 336 336 338 338 338 332 333 338 339 341 341 341 340 339 338 337 335 334 334 331
300 295 291 293 295 296 303 303 305 302 300 308 307 302 302 324 330 330 332 332 331 333 334 334 335 336 334 334 334 335 333 334 335 334 333 331 328 336 338 338 339 338 338 336 335 333 332 331 328
300 291 291 293 296 299 304 300 305 305 302 304 307 308 314 330 330 326 326 328 328 330 331 331 333 335 335 330 330 332 334 332 332 332 331 328 326 335 335 336 336 336 335 335 333 332 330 328 326
298 291 294 301 302 301 304 300 303 299 299 302 306 314 326 327 324 322 322 324 328 328 329 329 331 333 335 334 330 326 328 327 325 328 326 324 328 333 333 334 334 334 333 332 331 330 328 323 317
297 295 300 302 304 304 302 300 302 300 297 303 303 307 312 321 320 320 321 324 328 330 328 327 329 332 331 330 328 327 328 328 325 325 325 324 331 334 331 330 329 328 330 326 325 324 317 316 316
296 301 302 303 305 303 300 302 302 300 301 305 306 308 312 313 316 319 320 321 327 328 327 327 327 329 329 328 327 326 325 328 326 326 325 326 331 331 329 327 325 325 323 320 317 314 314 314 316
299 301 303 304 303 302 303 301 302 301 304 306 307 307 312 312 315 320 322 322 324 327 327 326 326 326 327 327 328 327 325 324 326 324 324 324 332 329 327 324 322 320 319 316 313 314 314 312 314
302 302 302 301 301 301 302 302 300 304 305 306 308 305 310 313 315 322 321 321 322 326 325 325 325 325 325 325 326 327 326 324 325 327 327 326 332 329 324 321 318 318 317 314 313 314 314 312 315
303 298 301 302 300 300 302 299 299 305 307 306 305 306 311 313 317 323 321 320 320 323 323 322 323 325 323 327 325 328 327 327 328 329 327 332 332 329 323 318 318 317 316 315 316 316 315 313 315
298 297 291 298 301 303 300 294 303 307 305 304 305 307 310 313 318 323 321 319 321 320 321 321 325 322 323 326 324 326 326 326 328 330 329 332 331 328 322 318 320 319 319 317 320 317 313 312 313
293 289 291 295 302 301 299 296 302 305 304 305 305 305 307 312 317 320 320 320 320 320 320 320 322 321 323 324 323 323 327 325 327 329 328 329 328 328 324 320 322 320 321 319 320 315 314 311 311
288 290 293 293 299 301 297 297 301 303 302 304 304 304 306 311 318 320 319 320 319 318 320 322 320 320 323 322 322 321 323 325 324 327 327 326 325 327 325 323 323 322 320 320 318 314 313 312 312
294 293 292 295 300 299 297 297 300 301 299 299 303 303 304 310 320 319 319 319 317 318 321 319 320 321 320 320 320 320 322 324 324 325 326 325 324 322 323 323 322 320 321 320 318 313 313 311 311
294 292 291 295 299 299 297 296 300 301 301 301 300 300 304 316 317 317 317 317 315 318 320 320 321 320 321 320 320 321 323 325 324 325 325 324 322 319 320 320 318 319 317 317 314 313 311 310 309
291 291 291 292 297 300 297 295 296 302 302 303 305 304 306 315 315 316 316 315 315 318 319 320 320 319 321 320 320 320 321 321 321 323 322 321 321 319 318 319 319 318 317 315 314 314 312 310 310
288 294 295 295 294 288 298 286 294 299 301 303 304 305 303 315 316 316 315 314 314 318 320 321 321 320 321 318 319 318 317 316 318 320 322 319 320 319 318 319 319 318 317 317 315 315 313 312 309
291 295 295 295 293 290 292 289 291 299 299 301 300 302 304 316 315 315 315 315 315 317 318 320 321 320 321 320 318 318 317 317 318 317 317 318 318 320 320 320 319 318 318 318 318 317 317 316 312
298 295 295 295 291 285 291 290 287 294 299 302 304 305 305 315 315 317 316 316 315 317 318 320 320 319 320 320 319 318 315 315 313 315 315 315 317 318 318 319 319 319 319 319 320 319 318 317 317
294 290 283 283 281 281 293 290 291 298 302 303 304 305 306 315 315 315 315 315 315 316 318 319 319 319 320 320 318 317 315 314 313 314 314 314 314 316 316 317 317 318 319 320 320 319 319 318 315
292 291 284 279 280 284 294 289 292 303 305 306 307 306 312 314 315 315 315 315 316 316 316 318 318 319 320 320 319 318 316 314 314 314 314 314 314 315 317 316 317 319 320 320 320 319 319 319 318
292 288 294 289 290 285 289 293 299 303 304 306 304 306 309 313 314 314 315 316 316 316 316 316 316 318 320 320 320 318 317 315 314 314 313 314 315 316 317 316 316 316 319 320 320 319 319 318 317
294 297 288 290 281 279 286 290 291 297 300 305 305 304 308 314 314 315 314 316 317 317 316 316 317 317 318 320 320 319 318 317 316 315 314 315 314 315 315 315 315 316 318 319 319 319 319 318 317
291 290 291 292 288 281 280 286 299 300 301 301 303 305 306 310 314 315 315 316 318 317 317 316 316 316 316 318 320 320 318 317 317 315 315 317 316 316 315 316 315 315 315 315 317 317 318 316 316
295 291 290 285 283 287 286 286 302 302 303 303 304 306 306 306 312 315 316 316 317 317 317 317 317 317 317 317 319 319 318 317 316 316 316 317 316 316 316 315 315 315 314 314 314 314 317 316 315

GFSSGP_sfc_thetae_102.txt.gz
Theta_e
319 316 310 304 294 290 287 291 296 297 299 303 305 304 302 301 301 296 323 337 343 344 348 347 347 349 349 350 350 350 351 351 351 350 349 349 348 348 348 348 348 349 350 347 347 348 347 346 346
311 312 305 298 290 285 288 294 296 299 304 306 306 305 303 306 322 325 326 340 344 343 347 347 346 347 349 349 350 350 351 351 351 350 349 349 348 348 348 348 347 348 349 344 346 347 346 345 344
312 314 300 293 288 287 289 295 296 301 305 303 302 305 306 309 325 327 331 339 344 342 344 347 345 346 348 348 349 349 349 350 349 349 349 349 348 348 348 347 346 345 345 343 346 345 345 343 342
309 304 299 290 289 293 295 299 301 300 301 303 304 303 307 319 328 331 333 333 340 341 343 343 344 345 347 348 349 349 349 348 348 348 348 348 348 348 347 346 345 345 346 345 345 345 343 341 339
302 297 290 288 290 295 299 300 303 301 301 306 304 303 305 323 328 330 330 333 336 339 341 341 341 345 347 348 348 348 348 346 347 346 344 344 343 343 344 344 344 344 343 343 343 342 339 338 337
297 295 287 286 291 296 299 303 302 302 302 304 302 304 310 324 326 328 332 332 336 337 339 339 343 344 346 347 346 345 344 344 343 342 338 336 338 337 340 343 342 341 340 339 340 338 337 336 334
294 291 287 288 292 295 299 304 302 302 300 301 304 301 313 319 325 331 333 332 333 337 335 336 337 340 340 340 343 340 340 341 339 339 336 335 336 335 338 339 340 340 339 339 338 336 335 334 332
297 293 288 289 291 292 300 300 302 300 299 306 305 301 310 320 328 331 330 329 329 332 334 333 334 335 335 335 337 335 335 337 335 336 335 332 333 334 336 337 339 339 338 338 336 335 333 331 329
298 290 286 289 292 295 302 299 302 302 300 302 304 306 308 327 328 327 326 326 326 330 330 331 333 332 333 331 335 334 336 336 335 335 332 329 328 333 333 335 337 338 336 336 334 333 331 329 328
295 288 291 296 297 298 302 297 301 298 299 300 303 321 326 326 325 324 323 324 324 325 327 328 329 330 332 333 330 331 332 333 332 331 330 328 328 327 328 333 335 336 335 334 333 331 329 324 320
294 294 297 299 300 301 301 298 299 297 296 301 301 316 323 324 322 323 323 325 326 327 327 326 328 330 332 330 328 327 329 327 325 325 324 326 326 329 329 332 332 331 332 328 327 326 320 317 316
294 298 298 300 302 300 299 302 299 299 300 304 304 306 322 321 320 320 321 322 326 326 325 325 326 329 328 328 327 326 327 326 322 324 322 322 325 325 330 331 328 327 325 321 319 317 315 315 315
297 299 301 301 301 301 301 298 299 300 303 304 305 305 315 318 319 319 319 324 326 325 325 323 324 325 326 326 325 325 325 327 327 325 324 324 328 326 330 327 326 323 320 318 314 312 313 313 315
301 300 300 300 299 299 299 299 297 302 303 304 305 304 305 310 315 318 319 321 325 326 324 323 323 324 324 324 328 327 325 325 327 326 325 325 327 329 327 324 322 318 317 315 313 311 311 311 315
301 296 297 298 298 298 299 296 296 302 304 304 304 304 303 309 319 320 320 321 325 325 323 321 322 322 322 323 326 328 326 325 324 325 324 326 328 327 324 321 318 316 313 312 312 310 311 311 314
297 295 289 297 298 300 297 292 300 305 302 302 304 305 303 309 320 320 320 320 324 323 321 321 323 321 322 322 323 327 326 326 326 326 326 326 329 325 320 317 315 314 311 313 314 313 311 312 313
291 289 290 293 299 297 296 294 299 302 303 302 303 304 304 308 318 320 318 320 320 320 319 317 318 319 321 325 321 326 324 326 327 328 326 329 327 322 318 316 314 315 312 314 316 313 313 311 311
288 288 291 290 295 297 294 295 298 300 300 301 301 301 302 311 318 318 319 319 318 318 318 317 317 319 322 323 321 322 325 324 327 328 326 330 325 321 317 317 315 315 313 316 316 312 311 311 311
294 291 290 291 297 294 293 293 295 299 299 297 299 300 301 308 317 316 318 318 317 316 316 317 316 320 321 319 319 318 321 322 324 327 328 328 325 321 317 319 316 317 315 317 315 312 311 309 310
292 290 290 294 296 295 293 294 296 299 299 300 300 299 301 312 314 316 316 316 316 316 315 316 317 321 320 319 318 318 321 324 323 325 326 326 325 323 319 321 318 320 318 316 314 312 309 308 309
288 289 289 289 293 295 292 292 295 299 300 303 305 301 305 314 313 314 314 314 314 314 315 317 317 319 319 320 320 320 321 324 321 322 321 322 322 323 322 322 320 320 319 317 315 313 311 311 308
284 291 291 290 289 284 295 285 292 297 299 301 303 305 304 313 315 315 314 313 314 314 316 317 317 316 318 320 320 319 319 319 321 322 321 318 319 320 321 319 320 319 318 316 315 314 311 310 309
287 292 291 290 288 286 288 286 288 296 295 298 302 304 302 313 314 314 313 314 314 316 316 316 317 317 318 319 319 319 318 320 321 322 319 317 317 319 321 320 318 318 317 316 315 313 312 311 310
294 290 290 290 288 283 289 288 286 290 296 298 303 305 302 312 314 315 314 314 314 315 316 317 316 317 318 318 319 318 316 316 317 318 318 316 317 318 319 320 320 318 317 317 318 317 315 314 312
291 287 281 280 279 280 290 288 290 296 300 301 302 304 306 309 314 313 312 312 313 313 315 317 316 317 319 317 318 317 316 316 316 317 316 315 316 316 317 318 318 318 318 318 319 318 317 316 315
288 287 281 277 278 281 290 284 291 301 304 305 305 305 308 312 314 313 313 313 313 313 315 317 317 317 319 318 315 317 317 316 316 317 317 316 316 316 317 317 317 317 318 318 319 319 318 317 316
288 286 291 285 287 282 286 290 297 302 303 304 304 303 308 311 313 313 314 313 314 314 315 316 317 319 319 319 318 316 316 314 315 316 317 316 317 317 316 316 316 316 317 318 318 318 317 317 317
291 294 285 285 278 277 283 285 288 296 300 302 303 302 307 312 313 314 314 314 315 315 315 316 316 318 319 320 319 317 316 314 314 315 314 315 315 316 316 315 315 316 316 317 318 317 318 317 317
287 288 288 289 285 280 278 282 297 298 300 301 303 305 305 306 312 314 315 315 315 316 315 314 315 316 318 320 320 318 316 315 313 313 312 313 314 315 316 315 315 314 314 316 317 316 317 317 316
293 290 291 284 282 285 284 284 300 299 302 304 303 306 307 305 306 314 315 315 315 314 315 314 315 315 316 319 320 319 318 316 315 313 312 314 312 313 314 316 315 314 313 314 315 316 316 316 314

GFSSGP_sfc_thetae_108.txt.gz
Theta_e
322 311 304 301 292 288 285 289 291 293 295 300 301 300 300 298 298 294 313 336 338 339 343 345 345 349 349 349 350 350 352 353 353 352 352 351 351 351 351 351 350 351 351 350 350 352 350 348 347
311 308 301 295 288 283 286 291 292 296 300 303 302 302 301 299 314 319 323 336 340 342 343 343 346 348 349 348 349 350 352 352 352 350 351 351 351 351 351 350 349 349 349 349 349 349 348 347 346
308 308 298 291 284 284 287 293 294 297 300 300 298 302 303 303 319 321 327 337 340 342 343 343 345 346 348 348 349 349 350 350 350 350 350 350 350 350 350 348 347 347 348 348 348 347 346 344 343
305 302 295 288 285 290 292 294 297 299 300 300 300 299 303 315 320 325 328 339 338 340 342 341 342 345 347 348 349 349 349 348 347 346 347 348 350 348 346 345 344 345 347 346 346 346 343 341 339
298 295 288 284 286 291 295 297 299 298 298 302 299 299 302 314 325 327 331 338 336 337 340 341 341 343 347 349 348 348 348 346 346 344 343 343 344 343 343 343 342 343 344 344 344 343 341 339 337
294 292 286 283 286 292 296 299 297 298 299 300 299 300 302 317 324 326 333 335 336 335 337 339 342 343 345 347 346 345 345 345 342 341 341 340 341 340 339 339 342 341 342 341 341 340 339 337 336
292 289 285 285 287 290 295 299 297 297 295 297 300 299 306 316 322 327 329 332 334 335 335 336 339 342 342 342 342 341 340 340 340 339 338 338 337 337 338 338 339 340 340 339 339 338 336 335 335
294 292 284 286 287 289 296 296 297 297 296 300 305 301 302 313 326 328 328 329 330 333 333 333 335 338 340 342 339 339 338 337 337 337 335 333 334 335 336 336 338 339 338 338 337 335 334 333 332
294 287 284 287 289 292 296 295 299 299 296 298 300 304 311 320 326 325 323 323 324 328 330 330 332 333 336 339 338 340 334 337 335 336 335 332 333 333 334 334 336 337 337 336 336 333 331 331 330
293 286 288 292 293 293 296 293 297 296 297 297 299 309 319 322 323 322 321 322 322 325 326 328 330 330 330 333 331 335 336 336 335 332 332 332 332 331 331 331 334 336 336 335 334 331 330 328 324
292 290 293 294 296 295 295 295 296 294 295 298 299 300 316 320 321 321 322 322 323 324 325 327 329 328 327 331 333 333 335 334 334 331 330 330 332 331 331 330 333 333 334 331 329 325 322 322 322
290 293 297 295 297 295 295 295 296 296 299 302 302 301 315 318 320 321 321 321 321 323 325 326 326 328 331 330 330 332 331 333 333 331 330 328 330 328 327 328 330 331 329 327 323 318 316 318 317
293 294 296 297 297 296 298 296 296 296 301 301 301 301 311 317 319 321 322 320 322 321 323 324 323 329 329 328 328 328 330 329 331 330 329 328 328 327 326 328 330 328 327 325 319 315 316 315 316
295 296 297 297 297 298 298 299 294 299 298 300 302 301 300 316 318 319 318 319 321 323 323 323 323 326 328 328 327 326 328 327 327 328 327 327 326 326 326 328 329 325 325 323 319 315 314 315 316
297 293 295 295 296 296 296 292 293 300 300 300 300 301 300 304 316 318 320 320 321 323 323 322 322 323 326 327 327 326 326 326 325 326 326 326 326 326 326 328 327 325 323 320 316 312 314 314 316
293 292 287 294 296 297 297 292 296 300 298 298 300 300 300 300 305 316 320 320 319 321 321 322 324 321 321 323 327 326 326 326 326 325 326 325 326 326 327 327 326 325 321 317 316 312 312 313 314
288 284 286 290 296 296 295 292 294 297 298 297 298 298 299 299 299 302 314 317 320 322 321 321 321 320 319 319 326 327 326 325 325 326 325 325 325 326 327 326 324 320 319 317 316 311 312 312 312
283 285 288 287 292 294 292 292 294 297 295 295 296 298 298 298 300 302 311 317 320 321 321 321 320 318 317 319 323 326 325 325 325 325 325 326 324 327 327 326 321 320 317 314 314 310 310 312 312
288 287 286 287 293 291 291 292 292 294 294 293 295 296 298 298 304 312 313 316 318 318 319 319 318 316 320 321 320 322 322 323 324 325 326 324 324 325 326 322 317 317 316 313 312 310 310 308 312
288 286 286 289 293 293 292 292 295 293 293 295 296 297 298 298 306 313 312 314 318 319 318 317 318 317 320 321 320 321 320 323 323 325 325 324 325 324 322 317 316 315 314 311 311 311 307 307 312
286 286 286 287 289 291 287 287 289 292 293 296 297 298 299 300 301 310 312 313 315 317 316 317 316 318 318 316 319 318 320 322 321 322 323 324 323 321 318 317 314 312 313 310 311 311 310 309 307
282 287 288 286 284 279 287 279 284 289 292 296 298 298 298 299 302 308 312 312 315 317 316 314 317 317 316 316 316 315 317 318 320 321 324 323 321 318 315 314 311 312 313 311 311 312 309 312 307
284 288 286 285 282 279 281 278 281 289 290 294 297 298 300 298 300 306 312 314 316 315 314 316 318 316 314 314 317 316 316 319 321 318 321 318 318 318 315 313 312 313 314 313 312 311 310 312 309
289 286 285 284 282 276 281 280 279 283 289 295 300 302 305 304 300 307 312 313 314 314 315 316 315 315 313 314 318 316 315 319 319 317 317 317 317 318 315 316 315 317 316 314 313 313 312 312 312
288 284 278 276 275 276 283 281 283 289 293 299 299 302 303 309 301 307 310 311 313 313 314 314 316 315 315 314 318 317 317 320 318 317 317 318 317 317 316 317 317 316 316 315 314 313 312 311 311
286 286 279 276 276 278 286 279 285 293 299 302 303 303 304 304 308 308 310 310 313 313 313 315 315 315 316 317 317 318 319 320 320 318 317 318 319 318 318 316 316 317 317 317 316 315 315 314 312
284 282 287 281 282 279 281 285 292 296 298 300 301 303 302 305 305 308 310 311 313 313 313 314 314 315 315 315 317 317 317 318 319 319 318 318 320 320 319 317 316 316 317 317 316 316 316 315 315
286 289 281 281 276 275 278 281 284 291 296 299 299 300 302 305 306 309 311 310 313 313 315 315 314 314 315 315 315 316 317 317 318 318 318 317 318 319 319 319 318 317 317 317 317 316 316 316 315
282 282 284 284 281 277 276 279 289 290 295 297 300 302 303 303 305 311 312 312 313 314 314 315 314 314 315 315 313 311 312 317 317 317 317 317 317 318 319 319 318 318 318 317 317 316 316 315 315
287 284 285 280 279 281 280 280 295 296 298 299 300 304 304 304 304 309 313 313 312 312 314 315 315 316 316 316 315 312 312 313 312 316 316 317 316 317 317 317 318 317 318 318 317 316 316 315 315

GFSSGP_sfc_thetae_111.txt.gz
Theta_e
327 315 312 310 301 300 295 297 299 299 301 305 307 306 306 306 307 303 322 339 342 345 348 348 346 346 348 350 350 352 353 353 353 353 352 352 352 351 352 352 352 352 352 351 351 353 351 349 349
319 311 309 304 298 293 295 298 299 302 305 306 307 306 306 305 316 321 325 339 343 345 348 348 345 347 349 349 350 351 354 354 353 352 352 351 351 351 352 351 350 350 351 351 350 350 349 348 346
314 311 307 301 296 293 295 299 302 304 306 305 306 308 308 309 321 324 329 341 344 345 346 347 344 346 348 349 350 351 352 351 350 350 352 351 350 351 350 349 348 349 350 351 349 348 347 345 343
312 310 303 297 294 297 298 302 302 304 306 306 306 305 310 317 325 330 333 342 344 345 346 344 343 345 347 348 349 350 349 349 348 349 350 349 349 348 347 347 347 346 349 349 348 347 345 342 340
306 305 297 294 294 297 300 303 303 303 303 305 305 305 308 318 329 332 335 342 343 345 346 347 341 344 347 348 349 348 348 347 345 345 346 345 344 343 342 343 343 344 346 345 345 345 342 340 339
303 302 294 291 293 297 301 304 303 302 303 304 304 305 309 321 328 333 339 342 345 345 347 347 343 344 345 346 344 345 345 342 342 344 344 342 340 342 343 343 342 343 343 341 341 341 340 338 338
301 298 294 293 293 295 299 304 302 303 302 302 307 304 312 319 328 333 340 343 343 345 346 347 348 346 343 342 341 342 342 342 341 340 340 340 340 340 341 341 341 342 341 341 341 338 337 337 335
301 300 293 293 293 294 301 303 304 304 303 306 311 306 308 318 330 333 339 342 342 343 345 346 347 348 349 349 340 339 339 338 338 338 336 336 336 337 338 338 339 340 340 340 338 336 335 333 333
301 295 291 293 294 297 301 301 304 306 304 305 307 308 314 323 330 331 333 336 339 339 342 344 345 346 345 345 347 341 338 337 337 337 335 333 338 337 334 335 337 338 338 338 336 335 333 332 330
300 294 293 297 298 298 300 301 302 303 302 303 305 308 320 325 328 328 328 330 334 336 338 342 344 343 340 340 343 346 343 341 340 340 338 338 337 337 336 336 335 337 337 336 335 333 331 332 334
299 294 297 298 300 300 300 300 303 302 301 304 304 307 310 320 324 326 328 330 331 335 338 339 341 344 340 338 338 340 338 338 338 338 339 337 336 336 337 334 337 338 337 336 334 332 331 333 332
295 297 300 300 301 301 300 302 301 302 303 307 307 308 307 310 317 324 326 328 329 331 335 338 340 340 339 338 336 336 336 336 334 334 335 336 335 335 334 331 333 334 337 335 332 327 329 331 330
296 298 299 301 301 301 302 300 301 300 306 307 307 307 306 308 315 323 327 329 330 330 333 336 338 339 336 334 334 334 333 336 334 331 332 333 335 333 334 332 333 334 333 332 327 327 326 328 328
298 298 299 300 300 300 299 301 301 302 306 305 306 307 308 307 312 318 324 326 327 330 332 335 336 336 333 333 331 332 333 334 337 332 330 331 332 331 332 331 333 330 333 330 327 326 324 326 327
299 295 298 299 300 300 301 298 298 305 306 304 305 307 307 308 309 314 320 323 327 329 331 332 334 334 332 332 331 330 331 331 331 332 331 330 330 330 331 332 330 331 332 328 326 325 325 325 325
294 295 290 297 299 300 300 294 301 305 303 304 304 305 306 308 309 311 315 318 324 328 330 332 331 332 330 331 332 330 329 329 328 328 328 329 330 330 329 330 329 331 329 327 324 324 323 323 323
291 286 289 293 299 299 298 296 301 303 302 303 304 305 305 306 308 309 311 312 319 327 329 330 331 332 328 329 330 328 330 328 328 327 327 327 328 329 328 331 329 330 327 326 322 323 323 321 321
285 287 289 290 297 298 297 296 299 302 302 303 303 304 305 306 307 311 315 317 318 327 329 330 331 331 328 328 329 329 330 328 330 328 327 326 326 327 327 328 328 326 323 322 322 321 323 322 322
290 289 289 293 297 296 296 296 299 301 301 301 303 303 304 305 309 312 321 322 323 326 327 328 329 328 326 325 324 324 322 325 326 327 327 327 326 326 326 326 323 323 321 321 323 320 320 319 322
289 287 287 291 295 295 294 294 298 299 300 302 302 302 303 305 306 309 318 319 321 323 326 325 327 325 326 325 325 328 327 326 327 328 328 328 326 326 326 325 322 320 318 318 320 321 319 318 321
287 286 287 287 292 295 293 290 292 296 298 300 301 302 304 304 306 309 312 319 319 322 321 322 324 324 326 327 325 323 325 325 324 326 327 326 325 325 325 324 322 320 317 315 316 321 320 316 319
284 289 288 288 287 283 291 282 290 293 295 298 301 304 307 309 310 309 309 317 319 321 320 322 323 323 323 323 322 320 321 320 323 324 326 324 324 324 322 320 321 320 318 315 316 321 322 320 316
287 290 289 289 287 286 286 284 287 292 293 296 304 305 308 312 311 308 309 315 320 322 318 321 324 323 320 321 321 320 322 323 324 324 323 324 323 321 319 318 318 318 317 317 315 318 321 321 319
291 289 288 287 286 279 284 283 285 290 293 300 303 305 307 310 313 316 314 317 319 322 317 322 323 319 319 323 322 322 320 321 321 321 321 320 319 317 317 315 314 316 316 316 317 318 321 321 320
289 286 280 279 279 279 286 283 287 293 298 303 303 305 308 310 312 314 315 316 318 316 316 318 319 316 319 322 323 322 320 320 322 321 319 316 316 314 313 313 314 316 317 316 316 318 319 320 320
287 287 281 274 277 280 286 282 287 296 300 305 305 306 308 309 312 314 315 316 316 314 315 317 316 316 318 321 322 322 322 321 323 321 321 317 317 314 315 314 317 318 318 316 316 316 317 320 318
288 284 291 284 285 283 285 289 295 299 302 303 304 306 306 309 313 314 315 316 316 315 314 316 316 317 316 319 320 320 321 322 321 320 321 320 320 317 316 317 318 318 317 317 317 316 316 316 316
290 293 284 285 278 277 282 285 288 295 298 302 302 304 305 309 312 315 315 316 316 315 315 316 317 316 317 317 318 319 319 321 321 320 319 320 320 317 316 316 317 317 317 318 318 318 318 317 318
285 286 288 288 286 280 279 283 294 295 300 302 303 303 305 307 310 312 314 314 314 315 315 315 315 316 316 316 317 317 318 319 319 319 319 319 320 319 316 315 314 314 314 316 317 316 317 317 318
289 286 288 284 282 285 285 285 298 300 302 303 304 303 305 306 308 310 310 314 313 314 314 314 315 316 317 316 317 317 317 318 319 318 318 319 318 320 319 318 316 314 313 314 315 316 316 315 315

GFSSGP_sfc_thetae_114.txt.gz
Theta_e
326 323 320 317 305 304 300 302 308 306 306 311 313 313 311 312 309 306 329 342 340 343 349 350 348 347 349 350 351 352 353 354 354 353 353 353 353 353 352 352 352 353 354 352 351 351 350 350 348
327 317 317 314 301 298 300 306 305 308 310 311 312 312 310 309 315 321 331 341 341 343 348 350 346 347 348 350 351 353 354 354 353 353 353 351 352 352 350 351 350 351 352 353 351 350 350 349 347
320 317 310 305 301 298 300 306 308 309 311 310 310 314 312 311 319 322 329 341 340 342 346 350 345 346 348 350 351 352 353 352 352 352 351 350 349 348 346 346 349 351 352 352 350 349 349 346 345
315 313 310 301 299 303 303 307 309 308 310 312 312 309 314 321 322 328 333 340 341 342 345 344 342 345 348 349 350 351 351 350 350 347 350 350 349 347 345 345 348 349 350 349 349 349 346 343 342
316 312 301 299 300 303 306 309 310 307 308 310 311 309 311 321 329 333 334 340 341 344 347 351 342 344 347 349 350 350 349 348 348 347 346 346 340 338 339 341 342 346 346 348 347 345 343 340 340
306 308 298 297 300 303 306 308 308 307 308 310 309 310 313 325 327 334 338 342 347 348 350 352 345 344 345 347 347 347 346 346 345 346 345 344 338 339 339 343 343 345 345 345 344 342 341 339 338
305 303 298 299 300 301 304 308 307 308 308 308 312 309 315 321 330 338 340 345 349 351 351 352 352 349 343 342 341 342 343 343 343 342 342 341 340 340 342 341 343 343 343 343 342 340 338 337 336
308 305 299 300 298 300 305 307 309 309 308 311 313 309 312 320 331 337 342 345 347 349 350 350 352 352 351 350 339 340 340 340 340 340 339 336 336 339 340 340 341 342 342 342 340 338 336 335 334
309 300 297 299 299 301 305 304 309 311 309 310 311 312 315 321 328 331 338 342 344 345 348 350 350 351 351 350 347 341 340 338 338 339 337 335 344 344 343 339 339 340 340 340 338 336 334 331 331
303 299 299 303 303 302 304 305 306 307 308 308 310 313 315 319 322 324 330 335 340 342 346 348 350 350 348 345 348 349 350 349 347 346 344 344 344 342 338 335 337 338 338 337 336 334 332 333 337
304 299 304 303 304 305 303 304 307 305 304 308 309 311 314 316 319 322 324 329 335 341 344 346 348 350 345 344 345 349 350 349 348 347 345 343 342 339 335 337 339 343 337 339 337 336 338 339 338
300 304 304 305 305 304 303 306 304 306 306 311 312 313 314 315 316 319 321 324 330 336 342 345 347 348 345 344 343 347 344 346 343 344 344 341 341 340 337 336 337 339 337 339 339 339 339 338 336
301 303 305 305 305 305 305 304 304 305 309 311 311 312 313 314 316 319 321 324 329 334 338 344 346 347 345 341 342 343 342 341 340 340 341 340 341 339 337 336 335 337 340 333 336 337 336 334 334
303 303 304 305 304 305 303 304 305 307 310 309 310 311 312 314 315 317 319 324 328 332 337 342 344 346 344 341 341 340 342 342 338 338 341 341 342 337 339 337 335 336 336 334 333 329 332 331 332
302 298 301 302 303 303 305 301 303 309 311 309 309 311 313 315 316 316 319 321 326 330 335 339 342 344 343 342 341 339 341 342 337 336 339 338 337 336 337 337 338 334 337 335 330 328 331 329 331
298 299 295 302 303 304 303 298 306 309 309 309 310 311 313 314 315 317 319 320 322 324 330 337 338 342 341 340 340 339 339 339 338 336 335 336 335 334 334 335 337 337 331 331 327 327 329 329 329
295 290 293 296 303 303 302 299 306 308 308 308 309 311 312 313 315 317 318 320 320 323 327 334 339 341 340 341 338 336 337 336 335 334 335 337 335 334 333 331 336 335 331 332 328 326 330 327 328
290 290 292 292 298 300 299 300 304 307 307 308 309 311 311 312 314 317 318 320 324 326 329 334 337 339 338 336 334 335 335 334 333 333 332 333 332 332 331 329 330 331 329 330 328 328 329 328 327
292 292 291 295 298 298 298 299 302 305 306 307 307 309 310 312 315 317 318 321 328 329 329 332 335 338 332 331 329 331 331 330 332 334 330 329 330 329 329 328 328 329 327 330 329 330 328 326 328
291 290 290 293 296 296 295 295 299 302 304 306 306 308 309 310 312 313 315 321 328 329 330 332 334 336 330 331 333 332 328 329 329 331 331 331 328 327 327 327 327 326 327 326 325 328 327 326 328
290 289 290 290 294 296 294 293 296 300 303 304 305 307 308 308 309 312 315 318 325 328 330 331 333 336 334 336 332 333 332 330 330 330 330 329 328 327 327 326 325 324 324 322 322 327 327 323 326
287 293 292 290 289 286 295 286 295 297 298 301 303 306 308 310 314 316 317 317 322 327 331 331 333 333 333 336 332 331 328 325 328 330 331 329 332 331 327 326 324 323 323 322 321 323 324 326 322
289 294 292 291 290 290 290 287 292 296 295 299 303 306 311 315 317 319 319 319 320 327 329 327 329 330 332 335 333 330 327 328 328 330 330 331 330 328 328 325 324 322 321 320 319 321 322 324 326
294 292 292 292 290 284 289 289 290 293 297 300 306 310 312 314 317 319 321 319 321 329 324 324 327 326 327 329 331 329 327 325 326 327 328 328 327 326 324 322 323 322 320 318 320 320 322 327 327
292 289 282 280 281 281 290 288 290 296 301 304 307 309 312 315 318 319 320 321 322 325 321 322 325 323 323 325 327 328 327 324 323 323 326 324 322 318 319 319 319 320 319 318 319 320 321 325 326
289 289 282 276 279 283 290 285 291 299 303 308 310 310 312 315 319 320 321 323 321 320 320 321 323 321 322 326 326 327 325 325 325 327 326 323 320 318 317 316 317 318 318 318 317 318 320 322 325
288 286 291 285 287 284 288 291 296 300 300 306 308 309 311 315 319 320 321 322 321 319 318 319 320 321 322 327 327 326 325 325 324 328 326 321 321 316 314 315 315 316 316 317 317 317 318 321 324
290 292 284 285 278 278 284 288 290 296 300 305 307 308 311 315 317 318 319 319 319 318 319 319 319 320 321 325 324 324 324 326 326 328 323 320 320 317 314 316 316 316 315 316 317 318 321 323 324
288 288 288 288 287 281 281 287 298 300 304 305 308 308 311 313 315 316 315 317 318 317 317 318 317 319 320 321 322 322 322 324 326 325 324 321 320 317 315 316 316 315 316 317 316 319 318 319 320
291 290 290 284 283 286 287 287 302 303 306 308 307 308 310 313 313 314 315 310 309 314 315 316 316 318 319 320 320 319 322 324 324 322 321 321 318 317 316 316 316 316 317 318 318 319 319 319 318

GFSSGP_sfc_thetae_120.txt.gz
Theta_e
327 323 321 316 302 302 298 301 308 307 309 314 315 312 313 314 311 308 331 337 341 343 347 348 349 351 351 351 351 352 354 355 354 353 353 353 353 352 352 354 354 353 354 354 352 351 352 351 350
322 321 318 309 298 295 298 306 305 309 313 315 314 316 312 310 318 323 328 336 341 345 347 347 347 349 350 351 351 353 354 355 354 353 353 352 351 348 348 348 347 348 352 353 352 352 351 349 348
323 323 308 303 299 296 299 305 308 312 314 313 312 316 315 312 317 323 331 334 338 344 346 347 346 347 350 351 352 353 354 353 352 352 353 351 345 341 342 340 341 342 345 352 351 352 349 347 345
318 317 309 299 298 303 303 307 309 311 313 314 314 311 316 322 320 329 330 332 335 340 351 343 344 346 349 351 352 352 352 349 350 351 351 348 341 339 340 336 340 339 336 345 350 349 347 344 343
318 310 299 298 299 303 306 308 310 309 311 312 313 310 313 321 325 329 329 331 336 345 349 346 342 346 348 350 351 351 350 348 349 350 349 345 341 339 339 339 339 332 331 341 346 346 344 343 341
308 307 297 296 300 305 308 310 309 310 311 312 311 311 314 322 324 329 332 339 348 351 351 347 344 345 347 348 348 348 348 347 348 348 345 345 342 340 339 339 338 334 332 339 343 344 343 341 340
305 302 298 299 300 302 306 312 308 307 309 309 314 309 316 320 330 333 334 341 347 353 351 347 346 346 345 344 344 344 345 345 347 345 341 339 340 339 341 341 339 336 339 342 343 340 340 340 339
308 304 299 300 299 300 308 309 310 308 307 314 315 309 312 326 335 335 335 342 344 349 351 348 348 347 347 346 341 341 342 342 342 342 339 336 335 336 339 340 341 340 341 343 340 339 339 338 337
312 301 297 299 300 303 309 307 311 312 309 310 314 315 320 326 328 330 334 341 344 347 349 349 348 348 349 348 345 341 342 341 340 341 338 334 336 337 336 336 338 340 340 341 339 337 335 333 334
305 300 300 305 306 306 308 308 308 307 307 307 311 317 319 321 324 325 330 334 339 343 346 348 349 348 350 347 346 345 345 345 345 344 338 340 340 337 337 338 338 339 338 338 337 335 333 334 333
306 300 305 306 308 309 308 308 309 306 304 308 308 313 315 317 320 322 326 333 336 342 345 346 348 350 349 345 347 344 345 344 344 345 343 343 342 341 339 339 339 337 338 336 335 333 333 335 335
301 305 306 307 309 308 306 309 306 306 307 311 312 314 314 315 316 318 321 323 332 337 343 345 347 349 350 346 345 345 342 344 344 343 345 343 341 339 338 338 337 336 336 335 334 332 333 333 333
301 302 305 307 308 308 309 306 306 307 311 313 312 312 311 315 316 320 320 321 324 333 341 344 347 348 349 346 344 345 343 344 344 344 344 342 340 338 338 336 335 334 337 335 333 332 332 331 333
301 301 303 305 306 307 305 306 306 307 311 311 312 311 311 311 313 315 317 319 323 326 339 344 344 348 349 346 345 343 346 344 346 345 344 343 340 338 336 334 335 336 336 336 334 331 332 331 332
301 297 300 301 303 303 305 301 303 309 311 310 310 311 312 312 312 312 316 318 320 324 332 343 344 347 348 345 344 344 345 344 343 343 345 342 341 338 336 335 334 335 336 334 331 330 329 331 331
294 294 290 297 301 303 302 295 303 309 308 307 310 311 312 312 313 313 315 317 319 321 327 338 343 345 347 345 342 342 342 342 342 340 342 342 340 339 336 334 333 334 334 332 329 328 326 327 327
291 287 289 292 299 299 300 297 303 308 307 307 309 311 312 312 314 315 316 316 317 321 324 332 338 342 345 345 343 342 341 341 341 340 339 341 340 338 336 335 333 334 333 330 328 327 327 325 325
286 287 290 290 295 297 297 298 303 306 305 307 309 310 311 313 314 317 318 318 319 322 324 331 336 341 344 346 343 342 341 339 341 340 338 339 339 338 336 334 333 333 331 329 327 326 326 325 324
291 290 288 292 295 294 295 296 299 303 304 304 307 309 310 312 315 317 319 321 322 323 328 328 334 339 342 341 339 338 336 336 336 336 337 336 337 336 335 333 332 332 330 329 327 326 323 322 323
290 289 289 293 294 293 293 292 297 300 302 304 306 307 309 311 313 316 318 322 323 323 326 328 328 337 339 341 340 338 337 333 333 334 334 334 335 335 333 332 331 331 330 328 327 325 323 322 323
289 288 288 289 292 294 292 290 293 298 300 303 304 304 306 309 311 313 315 318 323 323 328 327 328 331 337 340 338 335 333 333 332 333 332 332 333 334 332 332 331 330 329 326 326 325 323 319 321
285 291 290 289 288 283 292 282 291 295 297 300 302 303 304 306 309 313 314 315 318 322 328 329 329 330 335 338 334 332 330 329 330 330 330 331 331 331 331 330 330 329 329 326 326 326 323 321 318
287 292 290 289 287 288 288 284 288 294 294 297 301 304 305 306 308 309 311 313 320 321 327 329 330 331 336 334 333 332 331 331 330 330 328 329 330 330 329 329 329 328 328 326 325 325 323 322 319
292 290 288 289 287 281 287 286 286 290 294 297 302 305 306 309 314 316 320 322 322 331 330 332 331 330 334 333 334 332 332 330 329 329 328 328 329 329 328 327 326 327 326 326 325 325 324 322 321
289 286 278 278 279 279 288 286 288 294 297 298 302 308 312 314 316 318 319 321 323 327 331 331 330 329 334 334 333 333 333 333 330 328 328 327 328 328 328 327 326 325 325 325 326 324 324 323 321
287 285 279 273 276 280 288 283 288 297 299 301 309 311 313 314 318 319 321 323 324 327 328 325 325 326 332 332 332 333 332 332 330 329 328 327 327 327 329 327 326 325 325 324 323 323 324 324 323
288 283 288 283 285 281 285 289 294 297 298 299 308 310 311 314 316 319 321 322 321 322 323 323 322 324 327 328 329 330 329 328 328 328 327 327 327 328 326 326 325 324 324 323 323 322 322 323 323
291 292 283 283 275 275 281 285 287 292 295 300 306 308 312 316 317 318 318 318 319 319 320 321 321 323 324 325 326 328 327 327 327 327 326 327 327 325 324 322 321 321 322 322 321 320 321 321 322
287 286 288 286 284 278 278 283 295 297 297 302 306 310 312 314 315 314 314 314 314 316 317 319 319 320 322 323 325 326 325 326 325 325 327 325 324 324 320 317 317 317 317 319 319 319 320 320 320
290 286 287 281 280 284 284 284 297 301 302 304 305 310 313 314 314 312 312 311 309 309 309 309 317 319 321 322 322 323 324 324 323 323 326 326 323 321 319 317 316 315 316 316 317 317 319 319 319

GFSSGP_sfc_thetae_123.txt.gz
Theta_e
322 321 314 307 294 290 287 293 300 300 301 307 310 309 307 308 310 304 329 336 341 342 346 348 348 350 350 351 352 352 354 354 353 353 352 353 352 351 350 351 349 351 351 353 351 352 351 351 350
316 317 309 301 289 284 287 298 298 302 308 311 311 311 309 309 319 325 328 339 341 341 345 346 347 349 350 350 351 352 354 354 353 353 353 351 349 349 346 344 343 343 343 349 352 352 351 349 348
319 318 304 293 288 286 288 297 301 305 309 308 306 310 311 308 320 322 333 340 340 340 343 346 345 347 349 349 350 352 352 352 352 352 352 349 347 345 344 343 342 341 338 342 349 351 349 347 345
310 308 304 289 287 292 295 300 301 304 307 308 308 307 311 317 321 324 334 340 338 341 344 342 343 346 348 349 351 352 351 349 350 350 350 346 346 346 344 341 340 337 339 339 345 348 347 344 343
308 302 290 287 289 295 300 302 304 303 307 310 306 309 309 317 325 325 329 337 337 342 341 342 341 345 348 350 351 350 347 346 348 349 347 345 346 345 341 341 339 336 338 339 342 347 345 342 342
301 299 288 285 290 297 301 304 305 305 307 308 306 308 308 319 322 323 326 336 344 341 341 341 344 344 346 348 347 347 346 345 347 346 343 343 343 341 340 341 340 339 340 338 341 342 342 341 341
301 294 289 289 292 296 300 305 304 304 303 305 307 304 308 317 321 325 334 344 344 343 340 340 341 344 344 343 343 343 343 343 345 343 342 342 340 339 339 340 338 338 339 340 340 340 337 338 337
301 295 293 293 293 294 303 305 304 302 299 307 308 303 304 323 324 329 336 344 344 342 340 339 339 340 339 339 341 341 341 341 343 341 339 337 337 338 338 339 338 337 337 339 343 339 337 337 334
301 293 292 292 294 298 305 303 308 306 301 303 305 311 321 326 327 325 330 334 340 342 339 339 339 340 339 338 341 341 341 341 340 339 337 334 334 334 338 338 338 339 339 340 340 338 337 334 333
295 292 292 299 301 301 305 303 305 304 301 302 305 314 321 321 321 321 325 331 334 338 339 340 339 340 341 343 338 338 340 338 339 338 335 332 332 333 335 335 337 339 338 339 338 336 335 334 333
297 295 299 302 304 305 304 304 306 302 298 303 302 308 313 316 317 320 325 332 335 338 341 340 341 341 341 340 338 339 339 339 339 337 334 333 335 333 331 333 334 334 337 336 335 334 333 333 333
293 298 301 302 304 303 302 305 304 304 303 306 307 307 309 310 314 317 323 328 333 338 339 341 342 342 342 339 338 339 339 338 338 339 336 336 336 330 332 334 332 334 333 332 333 332 330 332 333
293 295 299 301 302 301 303 302 303 303 307 308 310 309 305 306 309 312 317 325 332 336 339 340 342 343 343 339 339 338 337 339 339 339 339 339 336 334 333 333 331 332 332 330 329 329 329 329 332
295 296 296 297 298 299 299 300 300 303 306 307 308 307 307 306 307 309 310 310 317 332 338 340 341 343 343 339 338 338 337 337 339 339 340 338 336 334 333 332 332 332 333 331 329 328 328 329 330
294 289 292 294 296 296 299 296 297 303 306 307 307 308 309 307 307 306 309 310 311 323 337 338 340 343 342 340 338 338 338 338 337 339 339 337 335 334 333 331 331 332 333 332 329 328 329 329 330
289 287 283 291 293 296 296 291 299 304 304 304 306 307 308 309 309 308 307 308 310 312 335 338 341 342 342 341 339 338 338 336 336 338 339 337 335 334 332 331 331 333 332 331 328 327 327 327 327
284 279 282 287 293 293 292 289 295 302 303 303 304 306 307 308 309 310 310 308 309 311 328 337 338 340 342 340 339 336 335 335 335 334 336 337 336 334 332 330 329 331 331 328 327 323 326 325 325
280 281 285 285 289 291 290 290 294 299 300 302 303 305 306 307 309 311 311 311 310 310 317 337 338 339 342 340 337 336 334 333 336 335 334 334 336 334 332 330 329 331 330 325 325 323 322 324 325
286 285 284 288 291 290 289 290 291 296 298 297 300 303 304 305 308 312 312 312 308 308 314 333 336 338 340 337 335 334 333 333 331 335 336 333 336 334 332 331 329 330 329 327 324 323 322 322 324
286 284 283 287 290 289 289 288 291 293 295 297 297 298 302 304 307 309 309 309 310 312 317 325 333 337 339 340 338 336 335 333 332 336 336 336 335 334 331 330 328 329 329 325 324 323 322 319 324
286 284 284 284 287 289 287 285 288 292 295 297 298 299 300 300 300 305 309 310 311 312 316 323 330 336 338 338 336 331 329 328 327 331 331 332 333 333 330 329 328 328 329 326 324 323 322 319 321
281 288 287 285 284 278 287 277 286 290 292 295 296 298 299 301 302 303 307 307 309 312 318 320 324 333 336 337 335 332 330 326 327 329 331 331 332 332 331 329 328 327 328 328 326 325 323 322 318
285 289 287 286 283 282 282 279 283 289 289 292 295 297 300 302 302 301 305 307 308 311 319 321 321 328 333 335 334 330 329 329 329 330 329 330 329 329 329 329 329 328 328 328 326 325 323 323 320
289 287 286 285 283 276 281 280 280 285 289 292 296 298 300 302 303 302 306 309 317 315 318 319 320 324 332 332 331 331 329 326 327 327 326 326 327 327 327 327 328 328 327 326 326 326 324 322 321
286 283 275 274 274 274 283 281 283 289 293 294 295 298 308 307 306 310 314 316 321 321 319 321 321 325 326 328 328 329 327 327 326 326 325 323 324 326 326 326 326 326 327 326 326 325 324 322 320
283 283 277 271 272 275 283 278 283 292 295 297 298 308 309 311 316 316 316 317 318 320 318 318 319 319 325 326 328 328 328 329 328 328 326 325 325 326 327 326 324 324 325 325 325 324 324 323 322
284 282 288 281 281 276 280 283 289 291 294 296 297 308 310 312 314 314 315 315 314 315 315 316 316 318 322 327 328 330 328 328 328 327 327 327 326 326 327 326 325 323 323 324 324 324 323 324 322
287 290 282 281 272 271 277 279 281 287 291 294 299 305 311 313 311 311 312 312 313 313 315 316 317 318 320 324 326 327 327 327 326 325 323 324 325 324 322 324 324 324 324 323 323 322 323 323 323
284 283 284 285 282 274 273 277 287 291 293 297 302 310 310 309 309 310 310 310 310 311 311 312 315 318 319 319 323 325 325 325 325 323 323 324 323 322 320 320 319 320 320 321 322 321 321 321 321
288 284 284 279 278 280 279 278 291 293 299 303 306 310 309 309 309 308 307 306 306 306 307 307 309 310 315 321 321 323 325 324 322 322 324 323 322 321 318 317 316 316 317 318 319 319 320 319 320

GFSSGP_sfc_thetae_126.txt.gz
Theta_e
319 318 311 305 293 289 286 290 295 296 299 304 307 307 306 307 310 304 327 331 341 343 347 347 348 349 350 351 352 352 353 353 352 353 353 352 353 353 352 351 350 349 352 351 351 351 351 351 349
314 315 307 298 288 282 285 292 295 298 303 309 308 309 307 310 322 325 325 338 340 344 346 346 346 348 349 350 350 352 354 353 353 352 352 351 351 350 348 346 345 344 346 351 350 350 350 348 347
317 315 303 293 285 284 286 293 296 300 304 306 305 308 310 312 324 322 329 338 339 341 344 345 345 346 348 349 350 351 353 352 351 351 352 350 349 348 347 344 344 344 346 346 349 350 349 346 345
308 307 302 289 286 289 291 294 298 300 303 306 306 306 310 320 325 328 335 336 337 339 343 342 343 345 348 349 350 351 351 349 349 350 349 349 349 348 345 343 342 343 345 345 346 349 347 343 342
305 299 291 285 287 291 296 298 300 300 301 307 305 305 309 318 326 332 334 335 337 338 341 342 341 345 348 350 350 349 348 348 348 348 347 347 348 346 343 340 341 342 342 342 342 346 343 342 340
301 296 286 284 289 294 297 300 301 302 303 305 304 305 307 318 329 332 333 333 340 336 339 341 343 345 346 348 348 345 344 345 346 346 345 346 344 342 342 340 340 341 340 342 342 342 342 341 340
299 294 288 287 291 295 298 302 301 301 302 303 304 302 307 316 327 331 333 338 339 337 337 339 341 344 344 343 343 342 342 342 344 343 342 342 341 339 341 340 338 340 339 341 339 341 339 338 337
300 295 290 289 292 293 300 302 303 301 302 305 307 302 306 316 320 331 338 338 337 337 337 337 339 341 341 342 340 340 339 340 341 340 339 338 337 337 339 337 338 339 339 340 340 339 338 338 335
298 289 286 289 292 296 303 301 304 306 302 305 303 308 314 323 331 335 336 335 335 336 335 336 337 338 337 339 342 340 340 340 339 339 337 334 334 334 336 335 336 338 338 338 340 337 337 335 334
293 287 290 296 298 299 302 302 303 302 302 304 304 318 322 324 329 331 332 333 334 333 333 335 336 337 337 341 340 338 341 341 341 337 335 332 330 332 335 336 335 336 336 338 339 338 334 334 334
292 291 296 298 300 302 301 301 304 300 299 303 301 305 313 318 324 328 330 333 334 336 336 335 336 337 337 338 339 340 339 340 340 336 332 328 330 330 332 333 335 332 336 335 335 335 332 331 332
289 294 296 297 300 300 298 301 300 300 302 306 305 306 307 309 313 324 327 331 332 336 337 336 337 338 338 338 336 338 338 338 338 337 332 330 329 327 328 330 329 331 333 334 333 332 329 330 331
288 291 294 295 295 295 297 296 298 298 301 305 307 306 305 305 306 311 320 332 333 335 337 337 338 338 340 338 336 336 337 337 338 335 334 332 331 329 329 331 330 332 332 332 330 329 328 329 330
291 291 291 291 292 293 294 296 294 299 301 304 306 305 304 304 305 305 309 320 332 335 336 339 339 340 340 338 337 336 337 337 336 337 336 335 334 331 330 330 330 330 331 330 328 326 326 326 329
293 287 289 290 290 291 291 292 292 300 301 302 304 306 306 305 305 304 307 312 327 335 337 337 338 340 340 338 338 337 337 337 336 337 337 337 335 332 331 330 329 330 330 328 325 323 325 326 329
289 285 280 286 289 290 289 285 293 297 298 299 303 304 306 307 308 305 306 306 309 329 334 338 340 340 340 339 339 338 337 337 337 337 338 336 335 334 331 330 329 330 330 329 326 324 324 325 327
282 279 280 285 289 288 286 285 292 294 296 298 301 302 304 305 308 309 306 305 306 313 330 336 338 339 340 339 338 338 338 335 336 338 337 336 335 334 332 330 330 330 329 328 326 322 324 323 325
279 280 282 282 286 287 286 286 291 293 293 294 295 297 300 304 307 310 310 307 308 306 328 335 337 339 340 340 337 336 336 335 336 336 337 335 334 333 331 329 329 330 328 327 325 323 320 322 324
284 283 282 285 289 286 285 286 288 291 292 292 293 296 298 301 307 309 311 311 308 307 316 332 334 337 339 337 334 333 332 333 334 334 335 335 335 333 330 328 327 329 327 325 324 321 321 318 323
284 281 281 285 288 287 285 285 288 290 291 292 293 294 297 297 300 302 307 309 309 308 306 327 334 336 339 338 337 336 335 332 334 334 333 334 334 334 333 331 329 328 327 324 324 322 318 319 324
283 281 281 282 286 287 285 282 285 290 291 293 294 295 297 297 297 301 303 305 307 309 306 319 332 336 339 338 336 330 328 327 329 332 333 334 335 335 334 332 329 329 329 326 324 322 321 318 321
279 286 285 283 281 276 284 274 283 287 288 291 293 295 296 297 299 301 303 304 307 308 311 317 331 335 339 338 335 332 331 329 331 332 333 332 334 333 333 331 330 330 329 327 325 324 323 322 319
283 286 284 284 282 280 280 277 281 286 285 288 292 295 294 297 298 300 301 304 308 309 315 324 331 335 337 337 335 333 331 331 329 330 328 331 331 332 331 330 329 327 329 328 326 324 323 323 320
287 285 284 284 282 275 280 278 278 282 285 289 292 295 295 296 298 301 301 303 308 310 314 318 329 333 335 336 335 333 330 327 326 327 327 328 329 329 330 329 329 328 328 328 327 325 324 323 322
284 281 275 273 273 273 282 280 280 286 289 291 292 294 294 295 301 304 307 315 315 316 318 321 324 325 330 333 333 332 330 328 327 327 326 326 326 326 327 328 327 327 328 327 327 325 325 323 322
282 282 277 271 273 275 283 276 280 288 291 293 295 295 303 311 312 311 313 314 315 316 315 317 320 323 325 325 328 329 328 328 327 327 326 325 326 326 327 326 327 326 326 326 326 325 325 324 323
283 279 285 280 282 277 278 281 286 289 290 293 294 294 309 309 309 310 311 311 312 313 314 315 317 319 322 324 324 324 325 326 326 325 325 325 326 326 326 326 325 324 325 325 325 325 324 323 323
286 287 279 281 274 272 275 276 278 285 288 292 296 298 304 308 308 309 308 309 309 310 312 313 315 317 319 323 326 327 325 325 327 325 325 326 326 326 326 324 323 322 323 323 324 323 324 323 323
280 281 283 283 281 276 273 276 291 293 298 300 303 303 302 306 306 306 306 307 307 308 308 309 310 312 315 321 323 325 324 323 325 324 325 326 325 325 325 324 323 323 321 322 322 322 322 322 322
283 282 283 278 276 280 279 279 294 294 298 297 299 304 305 305 304 305 304 305 304 304 304 305 306 308 312 318 320 321 324 324 323 323 323 323 323 323 322 321 320 319 319 320 321 320 321 321 320

GFSSGP_sfc_thetae_129.txt.gz
Theta_e
316 315 308 303 292 288 285 288 292 294 296 300 303 304 304 307 309 303 324 332 340 342 345 347 348 350 350 350 351 351 352 352 352 352 352 353 353 353 352 352 352 353 354 352 351 352 351 350 350
313 313 305 295 286 282 284 289 293 296 301 303 306 307 306 309 320 323 322 336 340 343 344 345 347 348 350 350 350 352 353 352 352 352 352 353 352 352 351 349 348 351 353 353 351 351 351 349 347
315 312 302 292 283 283 284 290 293 297 300 299 302 306 311 313 321 322 326 338 341 342 344 344 345 346 348 349 350 351 351 350 351 351 351 352 351 350 347 346 346 349 352 352 350 350 349 346 345
306 305 300 290 285 288 289 292 295 298 301 300 302 303 309 321 321 323 334 338 339 340 342 342 343 345 347 348 350 350 350 349 349 349 350 350 350 348 345 343 345 348 350 351 352 349 347 344 342
303 299 292 285 286 290 294 295 298 298 299 302 303 302 307 321 324 330 333 336 335 338 340 341 341 344 346 349 349 349 348 348 347 348 348 348 349 347 343 342 344 346 347 348 349 347 344 342 341
298 295 287 284 287 292 296 298 299 300 301 303 303 303 308 317 326 327 331 332 334 336 339 341 343 344 345 347 347 346 346 346 346 345 346 347 346 344 343 341 342 343 344 344 345 343 342 341 340
297 293 287 286 290 293 298 301 300 299 299 301 302 299 307 319 325 327 328 331 332 336 338 339 341 343 343 342 343 342 343 343 344 343 343 342 342 341 341 340 340 341 342 342 343 341 340 340 338
301 296 287 290 291 292 298 300 301 299 299 305 304 299 305 314 325 332 335 333 331 334 336 338 339 341 341 341 339 339 339 340 341 341 339 339 338 339 339 337 338 339 340 340 341 340 338 338 335
296 288 285 289 290 294 301 299 303 304 302 302 303 305 312 320 331 333 332 330 329 331 332 337 339 339 339 339 340 339 339 340 339 339 338 334 333 334 336 334 337 338 339 339 340 338 336 335 333
291 286 289 295 296 297 299 299 301 299 301 301 303 308 309 324 325 328 329 328 329 329 330 334 337 337 337 341 340 336 338 339 338 337 335 333 329 330 334 333 335 337 337 338 338 336 334 334 331
290 288 292 295 297 298 298 298 301 299 297 300 300 304 305 312 319 323 329 330 330 331 331 333 335 336 336 339 340 338 339 341 340 333 332 329 328 329 330 329 330 329 334 334 335 334 332 331 330
286 290 291 293 293 292 292 297 296 296 297 302 303 305 304 305 311 318 321 327 330 331 332 332 334 335 335 338 338 338 339 339 340 335 330 328 327 326 326 328 328 327 329 331 333 332 328 329 330
286 288 291 292 291 291 293 292 294 294 298 300 304 305 304 304 305 306 317 321 326 331 333 332 334 334 335 336 336 336 337 338 338 337 330 328 327 326 326 327 327 328 333 333 331 329 327 327 328
291 290 291 290 289 288 290 292 290 293 297 299 302 304 304 303 304 305 306 311 320 330 333 335 333 334 336 333 334 335 336 337 337 337 334 329 328 327 327 327 326 328 331 331 329 327 326 326 328
292 287 287 286 286 287 289 287 285 291 296 296 297 299 303 303 304 304 306 306 313 327 334 336 335 335 336 334 333 334 335 336 335 335 336 332 331 328 327 328 328 327 330 329 325 323 323 324 326
286 283 279 286 288 288 287 282 290 293 291 292 295 296 298 303 303 305 306 305 310 320 332 336 339 337 336 336 335 334 335 335 335 335 335 336 333 330 328 328 328 327 327 326 322 321 321 322 324
281 277 280 282 288 287 286 284 290 293 292 292 293 294 296 298 302 303 305 305 305 319 330 334 337 337 337 336 337 336 335 334 335 336 335 335 334 332 329 329 327 328 327 325 323 319 321 320 321
277 277 280 280 284 286 284 284 289 291 290 291 291 292 293 295 298 302 306 306 305 308 325 333 336 338 338 337 336 336 334 334 336 336 336 335 335 333 330 328 327 328 327 325 322 320 319 320 321
282 280 279 282 285 283 284 284 287 290 290 290 291 292 293 294 297 300 303 307 305 303 309 326 333 336 337 337 334 333 333 333 334 336 336 335 334 332 330 328 327 328 327 326 324 318 319 317 321
282 280 279 283 286 286 284 283 287 288 289 290 290 291 292 293 295 298 301 300 305 305 305 315 329 335 337 337 336 335 335 334 334 336 336 335 333 332 331 328 327 329 326 323 322 319 316 319 324
280 279 280 280 284 285 283 281 284 288 289 291 292 293 293 294 294 296 298 300 300 302 303 312 325 332 337 338 337 332 329 330 332 332 334 335 333 332 332 329 329 328 327 325 323 323 321 318 322
278 284 283 281 279 275 283 273 281 286 287 289 290 291 292 294 295 296 298 299 300 301 305 307 321 331 336 337 335 332 331 329 332 333 334 334 335 333 333 331 330 329 329 327 325 325 324 323 319
280 285 283 282 279 278 279 275 280 286 284 287 289 291 292 293 294 295 298 301 302 303 306 306 316 329 334 337 335 333 332 332 331 334 333 332 334 334 334 332 330 329 329 328 326 324 323 323 322
286 283 283 282 279 273 278 277 279 283 285 288 290 291 292 293 294 296 299 301 298 309 309 317 317 329 334 336 335 333 332 330 329 331 331 331 331 332 331 331 330 330 329 328 326 326 324 322 323
282 279 274 273 273 273 282 280 281 287 289 289 290 290 292 293 292 293 295 297 309 313 314 317 326 329 334 335 334 333 333 330 329 329 328 329 328 329 329 330 329 328 329 329 327 326 324 324 322
279 281 275 269 271 274 282 277 281 289 295 296 295 292 299 305 307 310 311 312 314 314 316 319 323 324 332 334 333 333 329 329 328 328 329 328 328 328 329 329 329 328 328 328 327 326 325 324 323
280 277 283 278 279 276 277 281 285 291 296 298 298 301 304 307 307 309 309 311 313 314 314 317 321 323 324 325 324 326 328 328 327 328 328 327 328 327 327 328 327 327 327 327 326 325 325 324 324
284 285 277 280 272 270 275 278 279 286 292 296 297 297 298 304 307 307 307 308 308 310 311 312 315 318 321 324 325 325 324 325 326 326 325 324 325 324 326 325 325 325 325 325 325 324 324 323 323
278 277 280 281 278 274 273 276 287 291 294 295 297 298 302 304 306 307 305 305 306 307 308 308 310 312 316 320 322 324 324 325 324 325 324 324 324 325 325 324 324 323 322 322 323 323 323 322 323
282 281 281 276 275 278 278 277 293 295 296 297 296 299 303 303 303 303 302 301 301 301 302 303 305 306 309 317 318 320 323 321 321 322 323 324 324 325 324 323 322 321 320 321 321 321 321 321 321

GFSSGP_sfc_thetae_132.txt.gz
Theta_e
315 312 307 300 290 286 283 285 289 291 294 299 300 300 304 307 309 303 325 332 338 341 346 347 348 349 350 351 350 351 352 353 353 353 352 353 353 353 353 353 353 354 354 353 353 353 352 351 350
310 310 303 294 285 280 282 287 290 292 298 300 301 303 302 306 317 321 325 335 339 343 345 346 347 348 349 350 350 351 352 352 352 352 352 352 353 353 352 352 352 353 353 353 351 352 352 350 348
312 310 299 289 282 281 282 288 291 295 299 297 298 303 306 311 319 322 324 338 341 341 344 345 346 347 349 349 350 350 350 350 350 351 352 352 352 352 351 349 349 351 353 353 352 351 351 347 345
304 304 298 289 284 287 287 290 293 296 298 300 300 300 305 314 321 324 335 339 339 340 342 342 343 345 348 349 350 350 349 348 348 349 351 352 351 350 347 346 348 351 352 352 352 351 347 344 343
301 298 290 286 287 290 292 293 296 296 298 300 300 300 303 314 324 330 334 338 336 339 340 341 341 344 347 349 350 349 348 347 347 348 349 350 349 347 345 345 347 348 349 350 349 347 344 342 342
296 295 287 284 287 292 294 297 298 299 299 300 300 300 302 312 323 325 332 333 335 337 338 340 343 343 345 347 347 346 346 345 346 346 347 348 347 345 343 344 345 346 345 344 345 344 343 341 341
294 291 286 285 288 293 296 300 298 298 297 298 300 298 301 309 318 326 327 329 332 334 335 335 338 342 343 342 343 342 343 343 344 343 343 343 343 342 341 342 342 342 343 342 342 341 340 340 339
299 295 287 289 289 291 298 298 299 297 298 304 303 298 299 308 322 330 332 329 328 332 333 336 340 341 339 341 340 340 340 341 341 341 340 339 339 339 339 338 340 341 341 341 342 340 339 338 336
295 288 285 288 290 293 299 297 301 301 299 300 302 304 306 318 330 329 327 327 327 330 333 337 338 339 338 337 340 340 340 340 339 339 338 335 335 335 336 334 338 340 339 339 338 339 337 334 334
290 286 288 294 294 294 297 295 297 295 296 298 300 305 306 319 324 325 323 322 323 323 331 335 336 337 338 340 337 335 339 340 339 337 335 333 330 330 332 333 336 338 338 338 337 336 334 333 332
289 287 291 292 293 290 292 292 294 294 290 297 297 300 302 305 317 323 326 327 327 328 328 332 334 336 336 338 338 333 335 340 339 333 332 329 328 330 329 328 330 331 335 335 335 334 331 330 331
284 288 288 289 291 289 288 291 292 291 292 298 300 300 300 302 303 316 322 325 328 329 329 330 334 334 335 338 337 336 337 339 338 336 330 329 326 326 326 327 326 326 328 332 333 332 331 330 329
285 286 289 290 290 287 289 287 289 290 294 296 298 300 300 302 302 305 312 321 327 329 331 330 333 333 334 335 336 337 337 337 337 335 330 328 326 325 325 325 326 325 327 329 330 331 328 327 328
288 288 289 287 288 287 287 288 286 289 292 293 295 295 296 299 301 302 304 305 317 327 331 332 332 333 334 334 335 335 336 336 336 336 332 327 326 325 326 325 326 327 328 330 330 328 326 325 327
290 285 285 285 287 284 289 284 284 290 292 293 293 294 294 295 297 300 304 306 306 315 329 333 333 333 333 333 334 334 335 335 334 334 334 328 326 325 326 326 326 329 330 330 328 326 323 325 328
284 282 279 285 286 287 286 280 287 291 291 290 292 293 294 295 295 297 300 305 308 308 315 332 335 333 333 333 333 333 334 334 334 334 334 331 328 327 326 326 327 328 328 327 326 323 321 322 326
280 275 277 281 286 284 284 282 287 290 290 290 291 292 293 294 295 296 297 300 305 308 311 327 334 332 333 333 332 332 333 333 333 333 334 334 331 328 327 327 326 328 326 324 324 319 320 320 321
276 276 279 278 281 282 281 282 286 289 289 289 290 291 292 292 294 296 298 298 301 303 307 320 334 334 334 334 333 332 332 332 334 333 333 333 333 330 328 327 326 328 326 324 322 320 319 320 321
281 278 277 280 283 281 281 283 285 288 288 288 289 290 291 292 295 296 297 297 298 302 304 315 331 334 335 334 332 331 330 330 332 333 333 333 333 332 329 328 326 329 328 326 323 318 317 317 322
280 278 277 281 283 283 281 281 284 287 287 289 289 290 291 292 293 295 295 294 297 301 304 305 327 333 335 336 335 334 333 333 333 334 333 333 334 332 331 328 327 328 327 326 322 319 316 318 322
279 277 277 279 282 282 280 279 282 287 289 291 293 293 293 292 292 294 295 295 295 296 301 304 309 331 335 337 336 332 335 333 332 332 332 332 333 332 332 329 328 329 328 325 324 321 320 318 322
276 282 281 280 277 272 281 271 281 285 287 290 293 295 293 293 294 294 295 295 295 295 299 303 306 317 333 336 335 333 331 330 332 332 333 333 334 333 332 330 328 329 329 327 325 323 322 321 319
279 283 281 280 278 275 276 273 278 285 285 288 294 296 297 294 294 293 294 295 297 297 296 301 303 312 325 335 335 333 331 332 332 333 333 333 333 333 332 330 330 330 329 327 325 323 322 322 322
285 281 280 280 277 272 277 276 278 281 285 290 296 298 300 301 293 293 295 296 296 294 300 301 302 311 324 333 335 333 332 330 329 331 331 331 331 333 332 332 331 330 329 328 326 325 324 322 322
281 278 272 272 272 272 279 277 279 286 289 295 296 298 298 302 300 297 296 294 292 299 303 308 305 310 324 331 334 334 332 332 330 331 331 329 330 332 332 331 330 329 329 329 327 326 324 323 322
279 278 270 262 270 272 279 274 279 288 293 297 299 298 301 302 307 308 308 310 309 310 312 315 319 321 325 332 334 334 333 332 331 331 332 331 331 332 333 331 330 330 330 329 327 326 326 325 323
277 275 281 270 277 274 276 279 285 292 293 297 297 298 298 303 305 304 305 306 308 311 314 321 324 325 330 333 333 332 331 330 330 330 330 332 331 331 330 331 329 328 328 328 327 326 325 324 324
281 283 273 276 268 269 273 276 279 285 288 292 295 297 298 300 301 301 302 302 304 305 307 311 315 317 321 325 329 329 330 328 329 329 328 329 330 328 328 329 328 328 327 327 326 326 325 324 324
277 275 278 279 276 272 272 276 285 287 289 290 295 297 296 296 297 298 299 301 301 301 301 303 306 309 313 320 323 324 325 325 324 324 325 326 326 325 326 327 326 325 325 325 325 324 324 323 323
281 279 279 273 271 278 277 276 289 287 291 291 293 294 294 293 293 294 294 298 298 297 297 297 299 302 305 309 313 316 321 324 323 323 322 322 322 323 323 324 324 323 323 323 323 322 322 322 322

GFSSGP_sfc_thetae_135.txt.gz
Theta_e
320 316 314 308 298 296 292 293 297 298 300 304 305 302 304 308 312 308 333 337 343 348 350 350 349 350 350 350 350 351 352 354 354 354 354 353 354 354 354 354 355 355 355 355 353 353 351 354 351
315 314 310 303 295 292 294 294 296 298 302 304 305 306 306 307 320 326 332 338 344 348 350 351 347 349 350 350 350 351 353 353 353 353 353 353 353 353 354 354 353 353 354 355 353 351 351 351 349
317 313 307 298 293 292 293 295 298 300 302 305 306 307 308 308 317 327 333 339 345 347 349 350 346 347 349 349 350 351 351 351 351 351 353 353 353 353 352 352 351 353 354 354 352 352 351 348 346
312 312 306 298 293 295 294 297 300 302 304 306 305 305 310 314 319 328 336 342 344 347 349 346 343 346 348 349 350 350 350 349 349 350 352 353 353 352 351 349 350 352 353 352 352 352 348 345 344
309 307 298 295 294 297 298 299 301 302 303 305 305 304 307 315 322 333 338 342 342 346 348 349 342 345 348 350 350 349 348 347 348 350 350 351 351 349 347 347 348 349 350 351 350 348 345 343 343
304 304 295 293 294 297 299 302 302 303 304 305 305 305 308 314 320 329 338 339 341 344 346 348 344 345 346 347 348 346 346 345 346 347 348 348 347 345 345 346 347 346 346 346 346 344 343 342 341
302 300 295 294 295 297 300 304 302 303 303 303 307 303 309 312 325 332 335 338 340 342 343 346 349 347 343 343 343 342 342 343 344 344 344 344 342 341 343 344 345 344 344 344 344 342 341 341 340
306 302 295 296 295 296 302 303 305 303 301 308 308 302 305 311 329 335 335 336 339 340 341 342 346 348 349 351 340 340 340 341 341 342 341 340 339 339 340 341 342 342 343 343 341 340 339 339 337
303 299 295 295 295 298 303 298 303 305 303 303 306 307 309 312 327 332 332 332 335 337 339 342 343 343 343 346 347 341 341 340 339 341 339 338 345 344 342 339 339 341 341 339 340 338 337 335 335
300 297 295 299 299 297 297 296 297 297 298 300 301 305 308 308 310 320 328 328 331 333 337 339 340 341 340 341 344 347 346 347 348 347 346 346 345 344 341 338 337 339 338 338 338 336 334 336 343
296 295 296 296 297 294 293 294 296 295 293 296 297 300 303 305 308 312 327 331 330 333 335 337 337 338 339 339 340 342 343 343 343 346 345 344 342 341 339 339 339 343 340 343 340 339 342 342 340
292 293 293 294 295 293 292 294 294 294 295 298 298 300 300 300 302 304 308 315 332 335 335 337 337 337 338 338 338 340 339 340 340 341 344 342 339 340 338 337 339 339 341 340 341 340 341 341 341
292 291 293 294 293 291 292 291 292 294 296 297 298 298 298 299 301 304 305 308 315 333 337 336 338 337 337 337 337 339 338 340 340 339 341 341 339 338 337 336 338 337 340 337 338 337 340 339 338
292 292 293 292 292 291 290 291 292 294 296 296 296 296 297 298 299 301 303 304 307 312 335 340 337 339 339 338 336 338 342 343 340 339 337 340 339 337 336 335 335 337 338 340 337 336 334 338 338
293 290 290 290 290 290 292 289 290 293 294 294 294 296 297 298 299 300 302 302 304 309 316 336 339 340 339 339 337 337 340 339 338 338 337 337 338 336 336 336 334 335 337 339 335 334 332 336 334
287 287 284 289 290 290 290 285 290 294 293 292 294 296 297 298 299 300 301 302 304 306 310 320 335 339 339 337 339 338 339 338 337 336 337 336 338 336 335 335 334 336 336 335 331 330 329 330 330
286 282 282 285 290 288 287 284 289 293 292 292 294 295 296 297 299 301 302 302 302 306 308 313 326 339 339 339 339 339 339 338 336 336 336 336 336 335 335 334 335 333 333 330 328 327 332 328 328
281 281 282 282 287 287 285 285 289 292 292 292 293 294 296 296 298 302 302 303 303 305 307 311 317 334 340 339 337 337 336 337 338 336 335 335 335 335 335 335 333 332 329 328 327 332 333 333 331
284 282 281 284 287 285 285 285 287 290 291 291 292 294 295 299 302 303 303 304 304 305 305 307 312 324 337 337 332 331 330 333 335 335 335 334 334 334 335 334 332 331 328 327 330 332 331 328 330
283 281 280 284 286 285 285 284 288 290 291 293 294 296 300 301 304 306 307 304 304 304 305 307 310 315 334 336 336 336 334 333 334 335 334 334 334 334 333 335 333 331 330 329 329 331 327 327 328
282 280 281 281 284 286 284 284 286 292 293 295 296 300 302 303 303 305 307 306 304 303 304 305 307 312 332 336 336 336 336 336 333 333 332 333 334 334 333 333 333 331 331 328 329 332 330 325 324
279 284 283 282 281 277 284 278 285 288 290 293 295 300 302 303 304 307 308 309 303 304 305 305 306 310 327 338 336 333 332 330 332 333 334 334 334 333 333 332 334 332 332 329 328 331 331 329 323
282 286 283 283 281 280 281 279 284 288 288 291 297 300 302 303 305 305 310 307 303 304 304 305 306 309 318 336 339 336 336 336 337 334 334 333 332 333 333 332 333 332 332 331 329 328 330 331 328
286 284 284 283 282 276 281 280 281 285 288 293 296 300 302 303 304 307 308 312 305 304 305 305 305 307 314 336 339 338 337 336 335 334 333 331 331 332 332 332 332 334 332 331 330 329 330 331 331
285 282 276 275 276 275 282 279 282 288 293 293 295 297 300 301 301 303 301 303 308 313 303 304 304 306 314 332 337 339 338 338 335 334 334 331 331 331 331 331 331 334 335 333 330 328 330 332 331
282 282 276 270 272 275 281 277 283 291 293 295 295 297 298 296 296 299 297 300 301 306 316 306 306 308 317 330 337 339 339 338 336 336 337 334 332 333 333 331 333 334 333 332 330 328 329 332 331
281 280 284 277 278 275 279 283 288 290 290 291 293 294 292 292 293 293 293 294 298 299 304 316 320 315 320 330 337 338 339 336 336 337 339 335 334 333 333 332 332 333 333 333 331 328 327 327 326
284 285 278 280 271 270 277 279 280 284 286 288 290 292 290 289 291 290 292 291 294 298 299 302 310 314 320 330 336 337 337 335 335 336 336 336 335 333 333 332 331 331 332 332 329 328 328 326 326
282 281 280 281 279 273 273 279 287 286 287 287 290 290 289 288 287 289 289 291 291 294 296 297 301 306 308 311 323 332 332 333 334 334 335 335 333 331 331 330 330 329 329 329 328 327 326 325 325
283 282 282 277 273 279 278 279 290 289 288 288 290 290 289 289 287 287 287 288 288 290 292 294 296 299 302 305 307 313 318 323 326 327 326 328 328 327 328 327 328 328 328 329 327 325 325 325 324

GFSSGP_sfc_thetae_141.txt.gz
Theta_e
324 323 322 318 307 306 303 304 308 306 307 311 312 311 310 315 313 310 329 338 345 346 354 353 350 351 351 351 352 354 355 356 356 355 355 355 355 355 356 356 355 356 356 354 352 353 351 352 350
324 319 319 314 303 301 304 306 304 307 308 312 311 313 312 313 319 321 326 336 342 347 354 352 348 350 351 350 352 354 356 356 356 355 355 355 355 355 356 356 355 355 354 352 352 351 351 352 349
325 320 315 309 306 302 303 306 307 308 309 311 310 313 313 314 319 322 331 342 344 347 353 354 347 348 349 350 350 353 354 354 354 354 355 355 355 355 354 354 353 355 355 353 350 350 352 349 347
321 318 314 305 303 307 305 307 307 307 311 312 312 310 315 320 319 326 333 343 345 346 352 348 346 348 349 350 350 351 352 352 352 353 354 353 354 353 352 351 353 355 354 353 351 351 349 346 345
318 316 306 305 305 308 308 309 309 308 309 311 312 310 312 319 321 322 332 341 347 346 353 356 345 347 349 350 351 350 349 350 350 351 352 352 352 351 351 350 349 352 353 353 352 348 346 344 344
312 313 304 302 306 308 310 311 310 309 311 311 310 310 313 321 319 319 327 339 348 350 352 357 347 347 348 349 349 347 347 347 348 349 350 350 350 349 350 349 348 350 350 349 348 346 345 343 343
309 309 304 305 305 307 309 312 310 309 309 309 312 307 314 317 317 319 323 338 344 350 353 356 355 350 347 347 345 344 344 345 346 347 347 347 346 346 347 348 346 348 348 348 346 344 343 342 341
312 309 304 305 304 304 310 309 309 307 306 312 312 306 309 312 316 319 323 334 342 346 350 353 354 355 354 353 345 343 343 342 343 345 343 342 342 343 344 345 346 347 347 346 344 342 341 340 339
313 304 301 303 303 305 310 305 308 308 306 308 308 309 309 311 313 315 319 324 330 341 346 350 350 352 354 354 350 344 344 343 342 343 341 339 349 348 347 344 343 345 345 344 343 341 339 337 336
306 303 303 307 307 304 304 303 303 302 303 304 304 308 309 310 310 310 312 315 319 324 340 345 348 348 350 346 352 351 350 349 349 349 350 349 349 348 345 343 342 343 343 342 341 339 337 337 344
305 301 305 304 303 303 301 301 303 300 300 303 302 304 307 307 308 309 310 312 314 318 326 340 345 348 348 346 346 347 347 347 347 350 350 349 347 350 345 345 344 345 341 343 341 341 343 343 345
299 303 303 303 301 300 299 301 300 301 302 305 305 306 306 306 307 308 309 310 311 313 318 324 342 345 348 344 343 344 344 347 345 347 352 349 348 347 345 342 342 343 342 341 341 340 342 343 344
299 300 300 301 299 300 300 299 299 300 304 305 305 305 305 305 307 309 310 311 312 312 315 318 323 341 343 345 342 344 344 345 347 347 350 349 346 347 344 344 341 340 341 342 341 339 341 344 343
300 299 300 301 300 300 297 299 300 301 304 302 303 303 305 306 307 309 310 310 312 312 314 316 319 325 342 343 346 346 345 344 346 346 346 350 348 349 342 342 340 339 340 340 342 340 343 344 341
300 296 299 300 299 298 299 296 298 302 302 301 302 303 305 307 308 308 310 312 314 315 316 316 320 324 327 341 344 344 343 345 344 345 345 347 350 349 347 342 340 339 341 343 343 344 343 342 340
296 297 293 299 298 298 296 292 299 301 301 300 301 303 304 306 307 309 312 313 314 316 317 319 318 321 323 326 344 343 343 344 344 346 346 345 351 349 347 341 341 340 341 340 339 338 340 341 338
296 291 294 295 299 296 295 293 299 302 300 299 301 303 304 305 307 311 313 314 315 317 318 320 324 325 323 324 328 347 348 346 345 347 347 347 348 349 346 342 342 344 339 339 339 339 339 337 337
292 292 293 292 296 296 295 295 298 300 300 300 301 303 304 305 308 311 313 315 317 319 320 322 323 326 327 324 323 331 345 346 346 345 347 348 345 349 348 343 343 342 340 339 339 338 339 337 335
293 291 291 294 296 293 294 294 297 299 299 300 301 304 305 306 310 312 312 312 312 314 313 318 317 323 325 319 317 317 334 341 344 345 346 348 344 348 348 344 343 342 340 340 341 336 336 336 336
292 291 291 293 294 293 293 293 297 298 298 300 302 303 304 305 307 308 308 308 307 307 307 310 311 315 320 322 317 318 319 340 342 345 345 347 346 346 347 345 343 342 340 341 340 338 334 336 334
292 290 290 288 292 295 293 293 295 298 299 302 302 303 305 305 304 303 303 303 303 302 304 305 306 309 316 323 318 317 318 329 339 340 342 345 346 344 347 346 344 343 341 339 339 338 336 332 335
289 291 289 289 289 287 294 285 293 296 296 299 300 303 303 302 302 301 301 299 300 299 301 299 301 305 312 320 322 316 314 319 333 338 340 343 345 343 344 345 345 342 340 340 339 339 339 337 331
289 291 290 290 290 290 291 287 292 296 293 295 299 300 300 301 300 299 298 298 298 296 298 297 297 301 308 317 323 315 315 320 331 337 335 341 344 344 342 345 344 343 340 341 339 338 340 338 333
291 290 292 292 291 285 290 288 289 292 293 295 298 297 299 299 298 299 297 298 296 295 296 295 296 297 304 312 322 319 315 321 332 334 333 334 340 341 338 339 345 345 341 341 340 339 341 339 337
291 290 285 284 284 284 290 286 289 295 296 296 295 297 298 299 297 297 295 294 294 292 293 293 293 295 302 314 320 317 317 315 332 334 335 329 335 338 335 335 341 343 342 341 342 339 340 340 337
289 289 285 278 281 284 290 283 290 296 298 298 298 297 297 296 296 296 295 293 292 290 291 291 292 293 299 313 314 316 318 316 331 333 332 325 324 333 337 334 336 342 342 340 342 339 339 341 340
289 287 291 283 286 283 287 290 294 297 296 297 296 296 295 295 294 295 294 293 290 289 290 290 291 292 296 307 317 315 318 318 331 335 337 326 323 323 336 335 334 335 339 340 338 336 336 339 340
291 293 285 287 279 278 284 285 289 291 292 294 294 294 293 295 293 294 293 292 290 290 289 291 291 291 295 301 307 319 317 324 335 335 330 331 332 333 335 334 333 333 333 336 335 333 334 334 339
287 286 287 288 286 281 280 285 293 292 294 293 293 293 292 293 293 293 293 291 290 290 289 289 290 291 293 297 301 307 316 320 332 333 333 332 335 337 337 337 333 331 331 332 332 331 331 332 337
292 289 288 284 282 285 284 283 296 296 295 294 293 293 294 294 293 293 291 289 289 289 287 288 289 290 292 296 297 300 304 310 314 318 329 336 337 340 338 339 334 330 331 331 331 330 331 332 332

GFSSGP_sfc_thetae_144.txt.gz
Theta_e
323 321 322 316 304 305 300 303 308 306 306 310 312 310 309 314 310 307 328 334 344 349 352 351 350 350 351 352 354 355 356 356 356 355 355 355 355 355 355 355 355 356 357 355 354 353 353 353 351
318 322 317 311 302 298 301 306 304 306 308 312 312 311 312 311 316 320 325 337 345 347 354 352 349 349 350 351 352 354 356 357 355 355 355 355 355 355 355 354 353 354 356 354 352 352 352 351 349
319 323 312 309 303 299 301 305 306 308 309 310 310 313 312 312 317 320 330 338 345 349 354 351 348 348 349 349 351 353 355 354 354 354 355 355 355 355 354 352 352 351 355 353 351 352 352 349 347
320 317 312 303 301 305 306 306 308 308 310 312 311 309 315 319 317 318 328 339 347 347 353 346 346 347 349 349 350 352 353 352 352 353 354 355 355 353 353 352 352 352 354 352 352 351 349 346 345
317 313 305 303 303 307 309 309 309 308 309 311 311 309 311 318 319 319 322 339 346 353 353 350 345 347 349 350 350 349 350 350 351 352 352 353 353 352 351 350 351 349 351 351 351 348 347 345 344
309 311 301 300 304 308 310 312 311 310 311 311 310 309 312 316 316 318 322 340 350 352 356 351 347 348 348 349 348 347 347 348 348 350 350 350 350 349 349 349 349 350 349 349 347 346 345 343 343
308 306 302 303 304 306 308 312 309 308 308 308 311 306 313 311 314 319 322 340 345 353 355 357 352 349 348 347 346 344 344 345 346 347 347 347 346 346 347 348 347 349 348 348 345 344 343 342 342
310 308 302 303 302 304 309 309 309 307 305 310 312 304 306 309 313 315 321 333 342 348 353 355 354 352 351 349 345 344 343 343 344 345 344 343 343 344 345 345 346 347 347 346 344 343 341 341 339
311 301 299 302 303 305 308 305 307 308 304 306 309 309 308 310 311 312 314 320 326 333 349 353 354 353 354 353 348 344 344 343 343 344 342 339 347 346 345 344 343 345 345 344 343 341 340 338 337
304 300 301 305 305 302 302 302 302 301 301 303 305 308 308 308 309 308 309 312 315 322 325 348 351 352 352 349 348 349 348 346 345 346 346 347 346 346 344 343 342 343 343 342 341 340 337 336 339
304 298 304 304 302 302 300 300 302 299 298 302 301 304 306 307 308 308 309 310 311 314 321 325 340 350 351 347 348 347 347 346 346 347 347 346 346 346 342 341 341 341 341 341 340 338 338 338 339
299 303 303 304 302 299 297 300 299 300 301 304 305 305 305 305 306 307 309 309 311 313 316 319 323 325 349 347 344 345 343 345 345 345 346 347 345 344 343 342 342 341 340 339 338 338 338 338 339
300 301 302 302 300 299 300 298 298 299 303 304 304 304 304 305 307 311 310 312 314 314 317 319 322 322 326 345 344 345 343 345 344 346 346 347 344 342 342 342 340 339 340 337 337 336 337 338 337
301 300 300 301 300 300 298 298 299 301 304 303 303 303 304 305 307 309 310 311 313 315 319 321 321 322 322 321 329 342 346 344 344 345 346 347 344 343 342 341 340 338 339 337 338 337 338 337 338
299 295 298 299 300 298 299 295 297 302 303 301 302 303 304 305 307 307 311 311 313 315 318 319 319 321 321 322 319 323 341 343 343 343 345 347 345 344 343 339 339 337 337 338 337 337 337 335 337
295 296 291 299 299 298 297 291 299 302 301 300 301 302 304 305 306 310 313 312 313 312 313 315 317 318 320 322 322 318 316 340 342 343 344 344 345 345 344 340 338 338 337 338 335 336 335 334 333
294 289 292 295 299 297 295 292 298 302 300 299 300 302 304 306 308 311 311 310 309 310 309 309 312 315 318 318 320 322 318 317 341 342 343 343 343 344 344 340 338 338 336 335 335 332 335 331 331
291 291 294 293 296 296 294 293 298 300 300 299 301 303 305 305 307 309 309 308 307 308 307 306 307 309 312 313 316 320 318 315 323 340 341 343 342 343 343 340 339 337 335 334 334 333 334 333 331
294 292 291 294 297 293 293 293 295 299 299 299 302 302 302 305 307 308 307 307 306 304 305 304 304 305 306 306 308 313 317 314 315 336 339 342 342 341 343 341 338 337 334 334 335 333 332 331 331
293 290 290 294 296 293 292 292 296 298 298 300 301 301 303 303 303 304 304 305 304 302 302 301 301 302 302 303 305 308 312 316 314 323 336 339 342 341 342 340 337 336 334 334 334 333 331 330 332
291 290 291 290 292 293 292 291 294 297 299 301 301 302 301 300 300 300 301 302 302 300 300 298 298 299 299 300 302 305 310 315 315 312 332 335 339 341 341 341 338 337 335 333 334 332 330 328 330
288 294 291 289 288 285 294 283 292 295 296 298 299 299 299 300 300 300 299 300 299 298 299 297 296 296 297 299 299 302 305 308 314 312 316 334 335 339 339 340 338 337 335 334 334 334 331 330 327
290 293 291 290 288 288 289 286 290 296 294 295 297 298 298 299 299 298 299 298 298 298 297 295 294 294 296 296 299 301 304 308 316 314 312 329 334 336 339 340 338 337 336 334 334 333 331 332 330
293 290 290 290 289 283 289 288 289 291 293 294 296 297 297 298 298 298 299 298 296 296 295 293 292 293 294 295 297 300 304 309 312 314 311 326 331 332 336 338 339 338 336 334 335 333 332 332 330
290 287 282 282 283 282 291 288 290 294 295 295 295 295 297 297 298 297 296 295 294 293 293 292 291 291 293 294 296 299 306 311 313 315 308 320 327 330 332 335 337 337 336 335 335 333 332 333 330
289 288 285 278 281 285 290 284 289 296 298 298 297 297 296 296 297 296 296 295 293 292 291 291 290 290 292 293 295 299 305 313 316 313 310 307 327 328 327 331 336 337 337 335 335 333 332 334 332
289 285 292 286 286 281 285 289 294 296 296 296 295 295 294 295 295 295 295 294 291 291 291 290 289 289 291 293 295 298 302 308 312 312 313 313 323 327 327 322 326 333 337 336 335 333 331 333 333
290 294 284 285 277 277 283 286 287 291 292 293 293 293 294 295 295 295 294 292 291 290 291 290 289 289 290 293 295 297 300 305 314 313 311 321 324 324 322 322 317 319 332 335 335 334 333 331 333
286 287 288 289 288 280 279 283 293 292 292 291 292 293 293 295 294 294 293 291 290 289 290 289 288 289 290 292 294 295 298 302 307 315 318 316 317 323 320 317 317 325 331 333 333 333 333 331 331
291 288 288 284 281 284 283 283 295 294 293 293 292 293 294 295 294 293 292 289 288 288 288 288 288 288 290 291 293 294 295 300 302 304 309 315 319 319 317 321 324 330 330 331 331 330 331 330 329

GFSSGP_sfc_thetae_147.txt.gz
Theta_e
319 312 312 307 296 294 290 294 299 299 300 305 306 306 307 308 307 303 322 332 346 347 349 349 348 350 351 352 353 354 355 354 354 354 353 353 354 354 354 354 354 354 357 355 354 354 353 353 350
317 315 309 301 293 287 290 296 296 300 306 309 309 309 309 306 315 318 324 335 344 349 349 349 347 348 350 351 352 354 355 355 354 353 353 353 354 354 354 353 352 353 355 355 353 352 353 351 348
317 314 302 297 292 289 290 296 299 302 307 307 305 309 309 307 312 312 328 339 348 348 350 349 346 347 348 349 351 353 354 353 353 352 354 353 354 353 353 352 351 352 353 353 352 352 352 347 346
310 307 302 294 292 297 296 297 301 304 307 308 307 307 311 313 312 312 331 340 348 348 349 344 344 346 347 348 350 352 352 351 351 352 353 354 354 352 352 350 350 351 353 353 352 350 348 345 344
307 302 294 293 296 300 300 303 305 305 306 309 307 306 303 309 312 313 328 341 346 347 346 346 344 346 347 348 348 349 350 350 350 351 351 352 351 350 350 349 349 350 351 351 350 347 346 344 343
301 300 291 289 294 302 304 307 308 307 307 307 306 306 302 306 308 310 324 337 342 349 347 347 347 347 346 347 346 345 346 347 348 349 349 349 349 348 348 348 348 348 348 348 347 345 344 343 341
297 295 292 294 296 299 303 308 304 304 302 301 303 300 301 303 306 308 312 335 341 345 348 345 345 347 346 344 343 343 343 344 345 346 346 346 345 345 346 346 347 347 347 347 345 343 342 342 340
300 297 294 294 295 296 303 301 302 300 296 304 305 301 296 301 305 306 307 313 325 339 344 346 344 344 343 342 343 342 341 341 343 344 343 342 342 343 344 344 345 346 346 345 343 342 341 341 339
300 291 289 293 295 297 300 297 301 299 297 300 303 302 302 304 304 303 303 305 308 314 320 341 345 347 345 344 344 343 342 341 341 343 342 338 342 342 344 342 342 344 344 343 342 341 339 338 337
296 289 292 297 297 296 298 294 297 295 295 297 301 304 303 303 301 301 302 302 304 306 310 313 319 344 346 349 343 340 341 339 339 341 340 340 341 341 344 342 340 343 342 342 341 340 338 337 336
295 292 296 296 298 296 294 293 296 292 290 297 297 298 300 300 301 302 303 303 302 305 309 309 313 315 334 341 341 342 342 340 340 339 340 340 342 340 340 337 338 338 340 339 339 338 338 335 335
292 297 297 296 296 294 291 294 295 293 293 300 300 300 298 300 301 303 303 303 304 308 313 316 316 316 318 321 334 339 338 341 339 340 340 339 338 337 336 336 337 336 337 336 336 335 335 335 336
293 296 298 297 296 293 297 294 295 293 296 300 301 300 299 299 302 304 307 308 308 308 310 312 314 314 316 317 319 322 333 337 340 340 341 341 338 336 336 336 337 336 336 335 334 334 335 334 335
295 295 295 294 294 295 295 295 293 295 297 300 301 297 297 299 304 306 306 305 306 307 307 308 310 311 313 314 317 318 320 323 338 338 340 340 339 337 336 335 337 336 336 334 334 333 332 333 334
296 291 293 293 294 293 294 291 290 296 300 298 298 298 299 303 306 304 305 304 304 306 306 305 306 307 307 309 311 313 316 320 325 338 338 342 341 338 339 337 335 335 335 335 334 334 332 332 334
292 290 284 292 294 293 293 286 294 298 296 295 297 298 299 304 304 303 304 303 303 303 302 304 305 304 305 306 308 310 311 315 320 327 339 339 343 340 337 338 336 334 333 334 335 335 332 331 331
287 282 286 288 293 292 290 287 292 295 297 295 295 298 302 302 302 302 303 303 302 301 301 301 302 301 302 303 304 306 308 311 316 318 326 340 340 343 340 339 337 334 333 333 333 332 332 329 328
284 285 288 287 291 291 288 288 292 292 292 293 296 299 300 300 300 302 302 302 301 301 300 300 300 299 299 300 300 301 303 306 311 315 317 325 339 341 341 340 336 335 332 331 331 330 330 330 329
291 289 287 287 291 289 288 286 289 292 292 293 296 297 297 297 299 300 301 300 299 299 298 299 298 297 296 296 295 296 297 300 304 307 313 318 331 339 340 339 338 335 332 331 331 329 329 327 328
290 287 285 289 292 289 285 285 289 290 292 296 296 295 295 296 297 299 299 298 297 297 297 297 296 295 294 295 295 296 297 299 301 305 309 314 320 335 337 337 338 335 332 330 330 330 326 327 328
288 286 286 286 288 287 286 283 287 292 297 297 296 296 297 296 295 296 298 295 294 294 295 295 295 294 294 295 296 296 297 298 299 303 309 314 316 327 335 336 337 336 333 331 331 330 329 327 328
285 290 289 287 283 278 286 276 286 290 293 294 294 293 294 294 295 296 295 294 293 294 295 294 294 293 294 295 294 294 294 294 297 301 304 308 313 317 331 335 336 336 334 331 332 332 330 329 326
288 291 288 287 282 280 282 278 283 290 290 291 292 293 293 294 294 294 294 294 293 293 293 292 293 293 293 293 294 293 293 295 298 300 302 307 312 316 320 332 332 333 335 332 333 331 330 330 328
291 287 286 285 282 276 283 282 281 285 289 291 292 293 293 293 293 294 293 294 292 292 292 291 292 291 292 293 293 293 294 294 296 299 301 304 310 314 313 330 329 322 332 332 332 332 330 329 329
287 282 275 275 275 276 287 284 284 290 292 292 291 291 292 292 292 291 291 291 291 290 290 290 291 290 291 292 293 294 294 297 298 300 304 306 310 312 315 325 325 317 326 332 333 332 330 329 328
284 283 276 275 275 279 288 279 284 292 294 294 293 292 292 291 291 291 291 290 289 289 289 290 290 290 290 291 292 293 295 297 299 302 304 310 312 313 320 324 324 318 318 321 332 332 331 330 329
285 281 287 282 283 277 280 285 290 292 291 292 291 291 291 291 291 291 290 289 288 287 288 289 290 290 290 291 292 293 295 297 298 302 309 312 314 309 312 322 321 315 314 317 330 331 330 329 330
287 290 280 280 274 273 279 282 282 287 288 290 289 289 290 291 291 290 289 288 288 288 288 288 290 290 290 291 292 293 293 296 298 301 303 308 317 312 317 318 321 321 318 322 318 326 331 329 330
284 283 285 285 282 276 274 280 290 288 289 288 289 290 289 288 289 289 289 288 287 287 287 288 289 289 290 290 291 292 292 295 297 299 302 305 314 312 310 307 316 316 317 320 317 312 328 328 330
288 286 287 277 278 280 277 278 291 289 290 289 290 291 290 290 290 289 288 287 286 286 286 286 289 289 289 290 291 291 292 293 294 295 298 303 306 318 312 310 310 313 313 317 314 314 317 328 329

GFSSGP_sfc_thetae_150.txt.gz
Theta_e
317 310 310 305 295 292 289 292 294 296 298 303 306 308 306 306 308 302 321 332 346 346 348 348 347 349 351 352 353 353 353 353 353 352 352 352 353 353 353 354 354 354 356 354 353 352 351 350 351
315 313 305 298 291 287 289 294 295 298 305 307 309 308 306 304 315 319 323 337 349 347 348 347 347 348 350 351 352 353 354 353 353 352 352 352 353 353 353 352 352 352 353 353 353 352 351 348 348
311 313 301 295 288 288 288 295 295 300 306 305 304 307 305 304 309 311 323 346 348 346 348 347 345 346 348 349 351 352 353 352 351 351 352 352 353 353 352 351 350 351 353 353 352 352 351 347 345
308 304 300 292 290 293 295 295 298 303 306 306 306 303 305 308 309 310 334 347 346 346 347 343 342 344 347 349 350 351 351 350 350 350 352 352 353 352 351 349 349 350 352 353 353 352 349 345 343
305 298 293 291 291 296 300 300 303 303 304 307 303 299 300 305 306 313 336 347 344 343 344 344 342 343 346 348 349 349 349 349 349 350 350 351 352 350 349 348 348 349 350 351 349 348 346 344 342
299 297 290 287 292 300 302 303 304 303 302 305 299 299 298 304 305 309 333 341 345 344 344 345 345 345 345 345 345 344 345 346 347 348 348 350 349 348 348 347 347 347 347 346 345 344 344 343 342
296 293 290 290 293 297 300 303 302 299 298 299 302 296 299 301 303 307 309 319 342 345 344 343 344 346 344 343 342 340 341 343 344 345 345 345 344 344 345 346 346 346 345 345 344 343 342 342 341
298 295 290 289 292 290 296 297 299 298 295 302 303 297 293 299 302 304 305 305 308 314 340 343 342 343 341 341 341 341 340 340 341 343 342 341 341 342 343 343 344 345 345 345 343 342 340 340 339
297 290 287 289 292 293 296 294 298 297 297 298 299 300 300 301 302 302 302 303 306 311 313 314 320 337 341 341 342 341 341 340 340 341 340 338 340 341 342 341 341 343 343 342 342 340 339 337 337
294 288 290 295 294 292 293 292 294 294 292 296 298 302 300 300 300 301 301 304 308 310 312 314 315 317 321 325 337 339 340 339 338 339 341 339 338 338 342 341 339 341 341 341 340 339 337 336 335
290 291 294 294 294 292 292 290 293 290 290 296 295 296 298 300 302 305 306 306 306 307 308 309 311 311 313 318 322 325 333 339 338 336 337 338 340 337 339 337 338 337 340 339 338 337 337 337 334
289 295 296 295 295 292 291 292 292 290 293 299 299 298 298 303 304 304 304 304 305 305 305 305 307 307 308 311 315 319 322 325 327 338 337 337 337 336 335 336 335 336 337 336 336 337 336 334 334
291 292 294 294 294 293 295 292 292 290 295 298 299 298 303 303 304 304 304 305 304 303 303 303 304 304 305 306 308 309 313 318 323 325 334 339 338 337 334 335 335 335 334 335 334 333 333 333 334
293 292 292 292 292 293 294 292 291 293 296 297 298 302 302 302 302 302 302 301 302 302 302 303 303 302 302 303 304 305 307 310 312 319 325 335 340 339 336 334 334 334 335 335 334 332 332 332 333
294 289 290 291 291 290 293 289 288 295 297 296 299 302 301 301 301 300 301 300 300 301 301 301 302 301 299 300 301 302 304 306 307 311 317 322 337 339 338 336 334 336 335 333 332 330 330 329 332
291 288 284 289 291 292 292 285 292 296 295 293 300 300 299 299 299 299 300 299 299 299 299 300 301 299 298 298 299 301 301 302 304 306 311 317 321 333 338 338 337 336 334 333 332 331 329 329 330
286 282 283 287 291 291 289 285 291 293 294 295 298 298 298 297 297 298 299 298 298 298 298 298 298 297 297 296 298 298 299 299 301 304 306 311 316 320 336 338 338 336 334 332 332 331 331 329 329
283 283 285 285 288 289 287 287 289 290 292 295 296 296 296 296 296 298 298 298 296 296 297 297 297 297 296 295 295 296 296 297 299 300 301 304 307 311 318 333 337 338 333 331 331 330 331 330 329
288 286 284 285 289 286 287 285 289 290 294 294 293 293 294 295 297 297 297 296 295 295 295 295 295 295 294 293 292 293 293 295 297 299 300 302 304 308 311 317 333 336 335 331 330 330 328 325 328
288 286 284 286 289 287 284 284 288 288 293 294 292 292 293 294 294 297 296 294 293 293 294 294 293 293 293 293 293 293 293 294 296 298 300 302 304 307 309 312 321 333 334 332 329 328 326 327 327
287 285 284 284 285 286 283 281 286 292 294 295 294 294 294 293 292 294 295 292 291 291 292 292 292 292 293 293 293 293 294 294 295 296 298 301 303 304 306 310 315 326 332 332 330 329 328 325 325
284 289 288 285 282 278 283 275 282 290 291 292 291 290 291 292 293 293 292 292 291 291 291 291 292 292 293 292 292 291 291 291 294 295 298 300 302 303 305 309 312 317 330 329 331 331 330 328 324
286 290 287 285 281 278 280 276 279 290 287 288 289 291 290 291 292 292 291 291 290 289 289 290 291 292 292 292 292 292 291 293 294 296 296 299 301 303 305 308 312 313 326 331 332 330 329 330 327
290 286 285 282 280 274 280 279 278 281 288 289 290 291 291 291 291 292 292 291 289 288 288 289 290 290 292 291 292 292 292 292 293 294 296 298 301 304 305 308 311 314 319 329 329 331 330 329 329
286 282 275 274 274 274 283 280 281 288 290 290 290 289 290 290 290 289 289 288 288 287 287 288 289 289 291 291 292 292 293 293 293 294 296 297 300 303 306 308 310 312 316 327 326 323 318 328 327
284 283 276 273 273 277 285 278 282 290 292 292 292 290 291 290 290 289 288 287 286 287 287 287 287 289 291 291 291 292 293 293 294 294 296 297 300 304 308 310 311 314 318 322 321 317 316 313 329
284 280 286 280 281 276 279 283 288 289 289 290 289 290 288 289 288 288 288 287 286 286 286 286 287 288 291 290 291 291 293 293 293 294 296 298 301 304 308 313 312 315 320 315 316 314 312 316 328
287 289 281 280 275 273 277 281 280 285 286 288 287 287 288 289 288 288 288 287 286 286 286 287 287 288 289 290 290 292 292 293 293 294 294 296 299 302 308 311 312 317 317 316 315 313 314 317 324
283 283 285 284 280 275 276 279 287 287 288 287 287 288 288 288 288 288 287 287 286 286 285 286 286 287 288 289 289 290 292 292 293 292 293 295 298 301 306 310 314 316 313 314 313 313 314 315 313
286 285 286 278 279 282 280 278 289 288 288 288 288 290 289 289 288 288 287 286 285 285 285 285 286 286 287 288 289 290 291 291 291 291 292 294 296 298 301 304 308 312 315 313 313 313 314 316 315

GFSSGP_sfc_thetae_153.txt.gz
Theta_e
320 309 306 302 294 290 287 289 292 296 297 303 307 307 305 305 306 301 319 332 345 344 346 347 347 350 351 352 351 351 352 352 352 352 351 352 353 353 353 354 354 355 355 353 352 351 350 349 350
314 310 303 297 290 285 288 291 293 296 303 307 306 306 304 300 312 319 322 335 346 345 346 345 346 348 350 350 351 351 352 352 351 351 351 352 352 352 353 353 352 353 354 351 351 350 350 350 348
308 310 300 293 287 287 289 293 294 299 303 302 301 303 302 301 307 313 329 346 346 346 346 345 344 345 348 349 351 351 352 350 350 350 351 351 352 352 352 350 350 352 354 351 351 351 351 347 345
307 303 299 291 289 291 292 294 297 301 303 303 301 299 301 304 305 310 343 346 345 344 345 342 341 343 346 349 350 350 350 349 349 349 350 351 352 352 351 349 349 351 353 353 352 350 347 344 343
302 297 291 289 290 295 298 298 300 301 302 302 298 297 298 303 306 327 341 344 342 341 343 343 341 343 345 347 348 348 348 348 348 349 349 350 351 350 349 347 348 348 351 351 350 349 345 343 342
298 295 288 285 291 297 299 301 300 300 299 299 297 297 296 301 308 313 332 341 343 342 343 344 345 344 344 344 344 344 344 345 346 347 348 349 349 348 347 347 347 347 347 347 346 344 344 342 341
295 292 288 289 291 294 296 299 298 298 296 297 299 293 296 299 302 308 310 312 313 314 317 328 339 344 342 340 341 341 341 342 342 344 344 344 344 344 345 345 346 346 345 345 344 342 342 341 341
296 293 289 289 290 287 294 294 296 294 292 298 300 294 292 297 302 306 310 311 312 312 313 314 317 320 323 327 339 339 339 339 340 341 341 340 340 341 342 342 344 344 344 344 343 341 340 340 339
295 289 286 288 290 291 294 292 296 294 295 296 297 298 298 300 303 308 308 307 307 308 308 309 310 312 317 321 324 328 333 337 339 339 340 336 340 339 341 341 341 343 343 342 342 340 338 337 336
291 287 290 294 293 290 292 289 292 291 292 294 296 298 301 306 306 305 304 303 303 303 304 306 305 307 309 315 318 320 323 326 326 334 339 339 338 337 340 340 339 341 341 341 340 339 337 336 334
290 289 293 293 293 293 292 289 291 291 288 295 294 295 303 304 303 303 303 302 301 302 303 303 303 303 304 307 310 312 315 320 323 321 327 335 338 337 337 336 336 336 339 338 337 336 335 336 333
287 292 294 294 294 291 290 291 291 290 292 297 296 303 303 302 301 302 302 302 300 300 301 302 301 301 301 303 303 305 307 310 313 314 317 323 335 336 336 336 335 334 335 334 335 337 337 335 333
289 290 292 293 292 290 293 290 291 289 293 301 304 303 300 301 301 302 302 301 300 299 300 300 300 299 299 299 300 301 303 305 307 309 313 316 319 330 337 336 335 334 334 334 334 336 334 333 331
291 290 290 290 291 291 291 291 291 292 295 302 301 299 299 300 300 300 299 298 299 299 299 299 299 298 298 297 297 299 301 301 302 303 307 311 316 320 332 337 335 334 334 335 334 333 332 331 331
293 288 290 290 291 290 291 287 288 292 299 300 299 299 298 299 299 298 298 297 297 298 298 298 299 298 296 296 296 298 299 300 299 301 303 305 309 314 319 324 336 335 335 334 333 330 329 328 329
289 287 283 288 290 291 291 284 290 293 298 296 298 297 296 297 297 296 297 297 296 296 296 297 298 297 296 295 295 296 297 297 298 299 300 302 304 306 309 315 325 336 334 333 332 330 329 328 328
284 281 282 286 289 288 288 284 290 292 298 297 296 295 295 295 295 296 296 294 294 295 295 295 295 295 295 295 295 295 296 296 297 297 298 300 302 303 304 306 311 322 335 333 331 330 330 327 327
282 281 284 283 286 286 284 286 286 289 296 295 294 294 293 293 294 296 295 295 293 293 294 294 294 294 294 294 294 294 294 295 296 296 298 299 300 302 302 304 307 311 321 333 330 330 330 327 328
286 284 282 284 288 285 285 284 285 290 294 292 292 292 292 293 294 294 294 293 292 293 292 292 292 292 293 292 291 291 291 293 294 296 297 299 300 302 302 304 306 309 311 327 332 329 327 327 328
286 284 283 285 287 286 282 285 285 289 292 292 291 291 291 291 292 294 293 291 291 290 290 291 291 291 292 292 291 291 292 293 294 296 297 298 300 301 302 302 302 306 311 313 328 329 327 328 327
285 283 283 283 283 283 281 281 284 290 292 293 292 292 292 291 290 291 292 290 289 289 288 290 290 291 292 292 292 292 292 293 293 294 295 297 299 301 302 302 302 303 306 310 317 329 328 325 326
283 288 287 284 281 278 282 275 281 288 288 290 290 289 290 290 291 290 290 289 288 287 287 288 290 290 292 292 290 290 290 290 292 293 295 297 298 300 302 302 302 303 305 308 313 327 329 328 324
286 289 286 284 279 277 278 276 278 288 285 287 288 289 289 289 289 289 288 288 288 287 287 287 288 290 291 291 291 291 291 292 293 294 294 296 298 300 302 303 303 303 304 308 310 321 327 329 327
289 285 284 281 279 275 279 280 277 283 286 288 289 289 290 289 289 290 289 288 286 286 285 285 286 288 290 290 291 290 290 291 291 292 293 295 296 298 300 302 303 305 305 306 310 313 325 326 328
285 283 277 275 274 275 281 279 284 286 289 290 289 288 288 289 288 287 287 286 286 285 285 286 286 287 289 290 290 290 290 291 292 292 293 293 293 296 298 300 303 305 307 308 310 313 322 325 326
283 283 278 274 274 276 282 276 280 288 290 291 291 289 289 288 288 287 287 285 285 285 285 285 286 286 288 289 289 290 290 291 292 293 293 293 294 295 298 299 301 303 306 309 310 312 319 325 322
283 280 286 280 280 276 278 282 286 288 288 289 288 288 287 287 287 287 287 286 285 284 285 284 285 286 287 288 288 289 290 291 291 292 293 293 294 295 296 298 300 303 306 308 310 311 318 321 319
286 288 279 280 275 273 276 278 279 284 285 287 286 287 288 288 287 287 286 286 285 285 285 285 285 285 286 288 288 289 290 291 291 291 292 292 293 294 295 297 299 302 310 311 312 315 317 317 313
283 282 284 284 281 276 273 276 287 286 288 286 286 287 287 286 287 286 285 285 285 285 284 284 284 285 286 286 287 289 290 290 289 290 291 291 292 293 294 295 297 300 304 313 314 315 313 312 312
286 285 285 277 278 281 280 279 288 289 288 287 288 289 288 288 287 286 285 283 284 283 283 283 284 285 286 286 287 289 289 289 288 288 290 291 291 292 293 293 295 298 302 308 312 312 312 311 310